Time,TemperatureF,DewpointF,PressureIn,WindDirection,WindDirectionDegrees,WindSpeedMPH,WindSpeedGustMPH,Humidity,HourlyPrecipIn,Conditions,Clouds,dailyrainin,SoftwareType,DateUTC
2013-07-02 00:01:00,76.4,74.2,30.02,NNW,328,0.0,1.0,93,0.00,,,0.20,Wunderground v.1.15,2013-07-02 04:01:00,
2013-07-02 00:02:00,76.4,74.2,30.02,NNW,328,0.0,1.0,93,0.00,,,0.20,Wunderground v.1.15,2013-07-02 04:02:00,
2013-07-02 00:04:00,76.5,74.3,30.02,NNW,328,0.0,1.0,93,0.00,,,0.20,Wunderground v.1.15,2013-07-02 04:04:00,
2013-07-02 00:05:00,76.6,74.4,30.02,NNW,328,0.0,1.0,93,0.00,,,0.20,Wunderground v.1.15,2013-07-02 04:05:00,
2013-07-02 00:10:00,76.8,74.6,30.02,NNW,328,0.0,0.0,93,0.00,,,0.00,Wunderground v.1.15,2013-07-02 04:10:00,
2013-07-02 00:11:00,76.8,74.6,30.02,NNW,328,0.0,0.0,93,0.00,,,0.00,Wunderground v.1.15,2013-07-02 04:11:00,
2013-07-02 00:16:00,76.8,74.3,30.02,NNW,328,0.0,0.0,92,0.00,,,0.00,Wunderground v.1.15,2013-07-02 04:16:00,
2013-07-02 00:17:00,76.9,74.4,30.02,NNW,328,0.0,0.0,92,0.00,,,0.00,Wunderground v.1.15,2013-07-02 04:17:00,
2013-07-02 00:18:00,76.9,74.4,30.02,NNW,328,0.0,0.0,92,0.00,,,0.00,Wunderground v.1.15,2013-07-02 04:18:00,
2013-07-02 00:19:00,76.8,74.6,30.02,NNW,328,0.0,0.0,93,0.00,,,0.00,Wunderground v.1.15,2013-07-02 04:19:00,
2013-07-02 00:23:00,76.9,74.7,30.02,NNW,328,0.0,0.0,93,0.00,,,0.00,Wunderground v.1.15,2013-07-02 04:23:00,
2013-07-02 00:25:00,76.8,74.6,30.02,NNW,328,0.0,0.0,93,0.00,,,0.00,Wunderground v.1.15,2013-07-02 04:25:00,
2013-07-02 00:26:00,76.9,74.7,30.02,NNW,328,0.0,0.0,93,0.00,,,0.00,Wunderground v.1.15,2013-07-02 04:26:00,
2013-07-02 00:30:00,76.9,74.7,30.02,NNW,328,0.0,0.0,93,0.00,,,0.00,Wunderground v.1.15,2013-07-02 04:30:00,
2013-07-02 00:31:00,76.8,74.6,30.02,NNW,328,0.0,1.0,93,0.00,,,0.00,Wunderground v.1.15,2013-07-02 04:31:00,
2013-07-02 00:32:00,76.8,74.6,30.02,NNW,328,0.0,1.0,93,0.00,,,0.00,Wunderground v.1.15,2013-07-02 04:32:00,
2013-07-02 00:33:00,76.8,74.6,30.02,NNW,328,0.0,1.0,93,0.00,,,0.00,Wunderground v.1.15,2013-07-02 04:33:00,
2013-07-02 00:38:00,76.7,74.5,30.02,NNW,328,0.0,1.0,93,0.00,,,0.00,Wunderground v.1.15,2013-07-02 04:38:00,
2013-07-02 00:39:00,76.7,74.5,30.02,NNW,328,0.0,1.0,93,0.00,,,0.00,Wunderground v.1.15,2013-07-02 04:39:00,
2013-07-02 00:42:00,76.6,74.4,30.02,NNW,328,0.0,1.0,93,0.00,,,0.00,Wunderground v.1.15,2013-07-02 04:42:00,
2013-07-02 00:43:00,76.6,74.4,30.01,NNW,328,0.0,1.0,93,0.00,,,0.00,Wunderground v.1.15,2013-07-02 04:43:00,
2013-07-02 00:45:00,76.6,74.4,30.01,NNW,328,0.0,1.0,93,0.00,,,0.00,Wunderground v.1.15,2013-07-02 04:45:00,
2013-07-02 00:50:00,76.7,74.8,30.01,NNW,328,0.0,1.0,94,0.00,,,0.00,Wunderground v.1.15,2013-07-02 04:50:00,
2013-07-02 00:51:00,76.7,74.8,30.01,NNW,328,0.0,1.0,94,0.00,,,0.00,Wunderground v.1.15,2013-07-02 04:51:00,
2013-07-02 00:53:00,76.8,74.9,30.01,NNW,328,0.0,1.0,94,0.00,,,0.00,Wunderground v.1.15,2013-07-02 04:53:00,
2013-07-02 00:54:00,76.8,74.9,30.01,NNW,328,0.0,1.0,94,0.00,,,0.00,Wunderground v.1.15,2013-07-02 04:54:00,
2013-07-02 00:58:00,77.0,75.1,30.01,NNW,328,0.0,1.0,94,0.00,,,0.00,Wunderground v.1.15,2013-07-02 04:58:00,
2013-07-02 00:59:00,77.1,75.2,30.01,NNW,328,0.0,1.0,94,0.00,,,0.00,Wunderground v.1.15,2013-07-02 04:59:00,
2013-07-02 01:00:00,77.1,75.2,30.01,NNW,328,0.0,0.0,94,0.00,,,0.00,Wunderground v.1.15,2013-07-02 05:00:00,
2013-07-02 01:04:00,77.1,74.9,30.01,NNW,328,0.0,0.0,93,0.00,,,0.00,Wunderground v.1.15,2013-07-02 05:04:00,
2013-07-02 01:06:00,77.1,74.9,30.01,NNW,328,0.0,0.0,93,0.00,,,0.00,Wunderground v.1.15,2013-07-02 05:06:00,
2013-07-02 01:07:00,77.1,74.9,30.01,NNW,328,0.0,0.0,93,0.00,,,0.00,Wunderground v.1.15,2013-07-02 05:07:00,
2013-07-02 01:09:00,77.0,75.1,30.01,NNW,328,0.0,0.0,94,0.00,,,0.00,Wunderground v.1.15,2013-07-02 05:09:00,
2013-07-02 01:11:00,77.0,74.8,30.00,NNW,328,0.0,0.0,93,0.00,,,0.00,Wunderground v.1.15,2013-07-02 05:11:00,
2013-07-02 01:14:00,77.0,74.8,30.00,NNW,328,0.0,0.0,93,0.00,,,0.00,Wunderground v.1.15,2013-07-02 05:14:00,
2013-07-02 01:15:00,77.0,74.8,30.00,NNW,328,0.0,0.0,93,0.00,,,0.00,Wunderground v.1.15,2013-07-02 05:15:00,
2013-07-02 01:17:00,76.9,75.0,30.01,NNW,328,0.0,0.0,94,0.00,,,0.00,Wunderground v.1.15,2013-07-02 05:17:00,
2013-07-02 01:20:00,76.8,74.9,30.01,ENE,60,0.0,0.0,94,0.00,,,0.00,Wunderground v.1.15,2013-07-02 05:20:00,
2013-07-02 01:24:00,76.8,74.9,30.00,ENE,60,0.0,0.0,94,0.00,,,0.00,Wunderground v.1.15,2013-07-02 05:24:00,
2013-07-02 01:25:00,76.8,74.9,30.01,ENE,60,0.0,0.0,94,0.00,,,0.00,Wunderground v.1.15,2013-07-02 05:25:00,
2013-07-02 01:30:00,76.7,74.8,30.01,ENE,60,0.0,0.0,94,0.00,,,0.00,Wunderground v.1.15,2013-07-02 05:30:00,
2013-07-02 01:32:00,76.7,74.8,30.00,ENE,60,0.0,1.0,94,0.00,,,0.00,Wunderground v.1.15,2013-07-02 05:32:00,
2013-07-02 01:34:00,76.7,74.8,30.01,ENE,60,0.0,1.0,94,0.00,,,0.00,Wunderground v.1.15,2013-07-02 05:34:00,
2013-07-02 01:37:00,76.7,74.8,30.00,ENE,60,0.0,1.0,94,0.00,,,0.00,Wunderground v.1.15,2013-07-02 05:37:00,
2013-07-02 01:38:00,76.7,74.8,30.00,ENE,60,0.0,1.0,94,0.00,,,0.00,Wunderground v.1.15,2013-07-02 05:38:00,
2013-07-02 01:41:00,76.7,74.8,30.00,ENE,72,0.0,1.0,94,0.00,,,0.00,Wunderground v.1.15,2013-07-02 05:41:00,
2013-07-02 01:43:00,76.8,74.9,30.00,ENE,72,0.0,1.0,94,0.00,,,0.00,Wunderground v.1.15,2013-07-02 05:43:00,
2013-07-02 01:45:00,76.8,74.9,30.00,ENE,72,0.0,1.0,94,0.00,,,0.00,Wunderground v.1.15,2013-07-02 05:45:00,
2013-07-02 01:46:00,76.9,75.0,30.00,ENE,72,0.0,1.0,94,0.00,,,0.00,Wunderground v.1.15,2013-07-02 05:46:00,
2013-07-02 01:50:00,76.9,75.0,30.00,ENE,72,0.0,1.0,94,0.00,,,0.00,Wunderground v.1.15,2013-07-02 05:50:00,
2013-07-02 01:52:00,77.0,75.1,30.00,ENE,72,0.0,1.0,94,0.00,,,0.00,Wunderground v.1.15,2013-07-02 05:52:00,
2013-07-02 01:54:00,77.0,75.1,29.99,ENE,72,0.0,1.0,94,0.00,,,0.00,Wunderground v.1.15,2013-07-02 05:54:00,
2013-07-02 01:55:00,77.0,75.1,29.99,ENE,72,0.0,1.0,94,0.00,,,0.00,Wunderground v.1.15,2013-07-02 05:55:00,
2013-07-02 01:58:00,77.1,75.2,29.99,ENE,72,0.0,1.0,94,0.00,,,0.00,Wunderground v.1.15,2013-07-02 05:58:00,
2013-07-02 01:59:00,77.1,75.2,29.99,ENE,72,0.0,1.0,94,0.00,,,0.00,Wunderground v.1.15,2013-07-02 05:59:00,
2013-07-02 02:00:00,77.1,75.6,29.99,ENE,72,0.0,0.0,95,0.00,,,0.00,Wunderground v.1.15,2013-07-02 06:00:00,
2013-07-02 02:04:00,77.2,75.7,29.99,ENE,74,0.0,0.0,95,0.00,,,0.00,Wunderground v.1.15,2013-07-02 06:04:00,
2013-07-02 02:06:00,77.3,75.8,29.99,ESE,105,0.0,0.0,95,0.00,,,0.00,Wunderground v.1.15,2013-07-02 06:06:00,
2013-07-02 02:07:00,77.4,75.9,29.99,ESE,105,0.0,0.0,95,0.00,,,0.00,Wunderground v.1.15,2013-07-02 06:07:00,
2013-07-02 02:09:00,77.4,75.5,29.99,ESE,117,0.0,0.0,94,0.00,,,0.00,Wunderground v.1.15,2013-07-02 06:09:00,
2013-07-02 02:10:00,77.5,75.6,29.99,ESE,117,0.0,0.0,94,0.00,,,0.00,Wunderground v.1.15,2013-07-02 06:10:00,
2013-07-02 02:13:00,77.6,75.7,29.99,ESE,116,0.0,0.0,94,0.00,,,0.00,Wunderground v.1.15,2013-07-02 06:13:00,
2013-07-02 02:15:00,77.7,75.8,29.99,ESE,116,0.0,1.0,94,0.00,,,0.00,Wunderground v.1.15,2013-07-02 06:15:00,
2013-07-02 02:16:00,77.7,75.8,29.98,SE,136,0.0,1.0,94,0.00,,,0.00,Wunderground v.1.15,2013-07-02 06:16:00,
2013-07-02 02:17:00,77.8,75.9,29.98,SE,136,0.0,1.0,94,0.00,,,0.00,Wunderground v.1.15,2013-07-02 06:17:00,
2013-07-02 02:18:00,77.8,75.9,29.98,SE,136,0.0,1.0,94,0.00,,,0.00,Wunderground v.1.15,2013-07-02 06:18:00,
2013-07-02 02:22:00,78.0,76.1,29.98,ESE,122,0.0,1.0,94,0.00,,,0.00,Wunderground v.1.15,2013-07-02 06:22:00,
2013-07-02 02:24:00,78.1,76.2,29.98,ENE,70,0.0,1.0,94,0.00,,,0.00,Wunderground v.1.15,2013-07-02 06:24:00,
2013-07-02 02:27:00,78.2,76.3,29.98,ESE,112,0.0,1.0,94,0.00,,,0.00,Wunderground v.1.15,2013-07-02 06:27:00,
2013-07-02 02:28:00,78.2,76.3,29.98,ESE,115,0.0,1.0,94,0.00,,,0.00,Wunderground v.1.15,2013-07-02 06:28:00,
2013-07-02 02:29:00,78.3,76.4,29.98,ESE,115,0.0,1.0,94,0.00,,,0.00,Wunderground v.1.15,2013-07-02 06:29:00,
2013-07-02 02:32:00,78.3,76.4,29.98,ESE,115,0.0,1.0,94,0.00,,,0.00,Wunderground v.1.15,2013-07-02 06:32:00,
2013-07-02 02:34:00,78.4,76.5,29.98,ESE,115,0.0,1.0,94,0.00,,,0.00,Wunderground v.1.15,2013-07-02 06:34:00,
2013-07-02 02:36:00,78.4,76.5,29.98,SSE,150,0.0,1.0,94,0.00,,,0.00,Wunderground v.1.15,2013-07-02 06:36:00,
2013-07-02 02:37:00,78.5,76.6,29.98,SSE,150,0.0,1.0,94,0.00,,,0.00,Wunderground v.1.15,2013-07-02 06:37:00,
2013-07-02 02:38:00,78.5,76.6,29.98,East,91,0.0,1.0,94,0.00,,,0.00,Wunderground v.1.15,2013-07-02 06:38:00,
2013-07-02 02:40:00,78.6,76.7,29.98,East,90,0.0,1.0,94,0.00,,,0.00,Wunderground v.1.15,2013-07-02 06:40:00,
2013-07-02 02:43:00,78.8,76.9,29.97,ESE,120,0.0,1.0,94,0.00,,,0.00,Wunderground v.1.15,2013-07-02 06:43:00,
2013-07-02 02:45:00,78.9,77.0,29.97,SE,133,0.0,1.0,94,0.00,,,0.00,Wunderground v.1.15,2013-07-02 06:45:00,
2013-07-02 02:47:00,79.1,77.2,29.98,SE,127,1.0,2.0,94,0.00,,,0.00,Wunderground v.1.15,2013-07-02 06:47:00,
2013-07-02 02:48:00,79.2,77.0,29.98,SE,133,1.0,2.0,93,0.00,,,0.00,Wunderground v.1.15,2013-07-02 06:48:00,
2013-07-02 02:51:00,79.4,77.2,29.98,ESE,113,1.0,3.0,93,0.00,,,0.00,Wunderground v.1.15,2013-07-02 06:51:00,
2013-07-02 02:54:00,79.7,77.2,29.97,ESE,107,2.0,5.0,92,0.00,,,0.00,Wunderground v.1.15,2013-07-02 06:54:00,
2013-07-02 02:55:00,79.7,77.2,29.97,ESE,114,2.0,5.0,92,0.00,,,0.00,Wunderground v.1.15,2013-07-02 06:55:00,
2013-07-02 02:56:00,79.8,77.3,29.97,SE,146,2.0,5.0,92,0.00,,,0.01,Wunderground v.1.15,2013-07-02 06:56:00,
2013-07-02 02:59:00,79.9,77.0,29.98,SSE,148,3.0,5.0,91,0.00,,,0.01,Wunderground v.1.15,2013-07-02 06:59:00,
2013-07-02 03:03:00,79.9,76.7,29.97,SE,142,3.0,4.0,90,0.00,,,0.01,Wunderground v.1.15,2013-07-02 07:03:00,
2013-07-02 03:04:00,79.9,76.7,29.97,SE,139,3.0,4.0,90,0.00,,,0.01,Wunderground v.1.15,2013-07-02 07:04:00,
2013-07-02 03:08:00,79.7,76.5,29.97,ESE,122,2.0,4.0,90,0.00,,,0.01,Wunderground v.1.15,2013-07-02 07:08:00,
2013-07-02 03:09:00,79.7,76.5,29.97,ENE,69,2.0,4.0,90,0.00,,,0.01,Wunderground v.1.15,2013-07-02 07:09:00,
2013-07-02 03:11:00,79.7,76.5,29.97,ESE,108,2.0,2.0,90,0.00,,,0.01,Wunderground v.1.15,2013-07-02 07:11:00,
2013-07-02 03:12:00,79.6,76.4,29.97,SE,134,2.0,2.0,90,0.00,,,0.01,Wunderground v.1.15,2013-07-02 07:12:00,
2013-07-02 03:16:00,79.5,76.0,29.97,SE,136,1.0,2.0,89,0.00,,,0.01,Wunderground v.1.15,2013-07-02 07:16:00,
2013-07-02 03:17:00,79.4,75.9,29.97,ESE,112,1.0,2.0,89,0.00,,,0.01,Wunderground v.1.15,2013-07-02 07:17:00,
2013-07-02 03:18:00,79.4,75.9,29.97,SE,129,1.0,2.0,89,0.00,,,0.01,Wunderground v.1.15,2013-07-02 07:18:00,
2013-07-02 03:19:00,79.4,75.9,29.97,SE,129,1.0,2.0,89,0.00,,,0.01,Wunderground v.1.15,2013-07-02 07:19:00,
2013-07-02 03:20:00,79.4,75.9,29.97,South,169,1.0,1.0,89,0.00,,,0.01,Wunderground v.1.15,2013-07-02 07:20:00,
2013-07-02 03:22:00,79.3,75.8,29.97,SSE,152,1.0,1.0,89,0.00,,,0.01,Wunderground v.1.15,2013-07-02 07:22:00,
2013-07-02 03:26:00,79.1,75.2,29.98,SE,131,0.0,1.0,88,0.00,,,0.01,Wunderground v.1.15,2013-07-02 07:26:00,
2013-07-02 03:29:00,78.9,74.7,29.98,SE,136,0.0,1.0,87,0.00,,,0.01,Wunderground v.1.15,2013-07-02 07:29:00,
2013-07-02 03:32:00,78.8,73.9,29.97,SSE,147,1.0,1.0,85,0.00,,,0.01,Wunderground v.1.15,2013-07-02 07:32:00,
2013-07-02 03:33:00,78.8,73.9,29.97,SSE,158,1.0,1.0,85,0.00,,,0.01,Wunderground v.1.15,2013-07-02 07:33:00,
2013-07-02 03:34:00,78.7,73.5,29.97,SSE,157,1.0,1.0,84,0.00,,,0.01,Wunderground v.1.15,2013-07-02 07:34:00,
2013-07-02 03:35:00,78.7,73.5,29.97,SSE,157,1.0,1.0,84,0.00,,,0.01,Wunderground v.1.15,2013-07-02 07:35:00,
2013-07-02 03:39:00,78.6,73.4,29.97,ESE,109,1.0,2.0,84,0.00,,,0.01,Wunderground v.1.15,2013-07-02 07:39:00,
2013-07-02 03:40:00,78.5,73.3,29.97,SE,126,1.0,1.0,84,0.00,,,0.01,Wunderground v.1.15,2013-07-02 07:40:00,
2013-07-02 03:42:00,78.5,73.3,29.97,SE,143,0.0,1.0,84,0.00,,,0.01,Wunderground v.1.15,2013-07-02 07:42:00,
2013-07-02 03:43:00,78.4,73.2,29.97,SE,141,0.0,1.0,84,0.00,,,0.01,Wunderground v.1.15,2013-07-02 07:43:00,
2013-07-02 03:45:00,78.4,73.2,29.97,SE,126,0.0,1.0,84,0.00,,,0.01,Wunderground v.1.15,2013-07-02 07:45:00,
2013-07-02 03:49:00,78.3,73.1,29.97,ESE,123,0.0,1.0,84,0.00,,,0.01,Wunderground v.1.15,2013-07-02 07:49:00,
2013-07-02 03:50:00,78.3,73.4,29.97,SE,124,0.0,1.0,85,0.00,,,0.01,Wunderground v.1.15,2013-07-02 07:50:00,
2013-07-02 03:52:00,78.2,73.3,29.97,SE,124,0.0,1.0,85,0.00,,,0.01,Wunderground v.1.15,2013-07-02 07:52:00,
2013-07-02 03:53:00,78.2,73.3,29.97,SE,124,0.0,1.0,85,0.00,,,0.01,Wunderground v.1.15,2013-07-02 07:53:00,
2013-07-02 03:56:00,78.1,73.6,29.97,ESE,118,0.0,1.0,86,0.00,,,0.01,Wunderground v.1.15,2013-07-02 07:56:00,
2013-07-02 03:58:00,78.0,73.1,29.97,ESE,118,0.0,1.0,85,0.00,,,0.01,Wunderground v.1.15,2013-07-02 07:58:00,
2013-07-02 03:59:00,78.0,73.1,29.97,ESE,118,0.0,1.0,85,0.00,,,0.01,Wunderground v.1.15,2013-07-02 07:59:00,
2013-07-02 04:01:00,77.9,73.0,29.97,SE,130,0.0,0.0,85,0.00,,,0.01,Wunderground v.1.15,2013-07-02 08:01:00,
2013-07-02 04:06:00,77.7,73.2,29.97,SSE,153,0.0,0.0,86,0.00,,,0.01,Wunderground v.1.15,2013-07-02 08:06:00,
2013-07-02 04:07:00,77.7,73.2,29.97,SE,134,0.0,1.0,86,0.00,,,0.01,Wunderground v.1.15,2013-07-02 08:07:00,
2013-07-02 04:09:00,77.7,73.2,29.97,SE,134,0.0,1.0,86,0.00,,,0.01,Wunderground v.1.15,2013-07-02 08:09:00,
2013-07-02 04:13:00,77.6,73.1,29.97,SE,134,0.0,0.0,86,0.00,,,0.01,Wunderground v.1.15,2013-07-02 08:13:00,
2013-07-02 04:14:00,77.6,73.1,29.97,SE,134,0.0,0.0,86,0.00,,,0.01,Wunderground v.1.15,2013-07-02 08:14:00,
2013-07-02 04:15:00,77.6,73.1,29.97,SE,134,0.0,0.0,86,0.00,,,0.01,Wunderground v.1.15,2013-07-02 08:15:00,
2013-07-02 04:18:00,77.6,73.1,29.97,SE,134,0.0,0.0,86,0.00,,,0.01,Wunderground v.1.15,2013-07-02 08:18:00,
2013-07-02 04:20:00,77.6,73.1,29.97,SE,134,0.0,0.0,86,0.00,,,0.01,Wunderground v.1.15,2013-07-02 08:20:00,
2013-07-02 04:21:00,77.5,73.0,29.97,SE,134,0.0,0.0,86,0.00,,,0.01,Wunderground v.1.15,2013-07-02 08:21:00,
2013-07-02 04:23:00,77.5,73.0,29.96,SE,134,0.0,0.0,86,0.00,,,0.01,Wunderground v.1.15,2013-07-02 08:23:00,
2013-07-02 04:27:00,77.5,73.3,29.96,SE,134,0.0,0.0,87,0.00,,,0.01,Wunderground v.1.15,2013-07-02 08:27:00,
2013-07-02 04:29:00,77.4,73.2,29.96,SE,134,0.0,1.0,87,0.00,,,0.01,Wunderground v.1.15,2013-07-02 08:29:00,
2013-07-02 04:30:00,77.4,73.2,29.96,SE,134,0.0,0.0,87,0.00,,,0.01,Wunderground v.1.15,2013-07-02 08:30:00,
2013-07-02 04:32:00,77.4,73.2,29.96,SE,134,0.0,4.0,87,0.00,,,0.01,Wunderground v.1.15,2013-07-02 08:32:00,
2013-07-02 04:35:00,77.4,73.6,29.96,SE,131,0.0,4.0,88,0.00,,,0.01,Wunderground v.1.15,2013-07-02 08:35:00,
2013-07-02 04:37:00,77.4,73.6,29.96,SE,131,0.0,4.0,88,0.00,,,0.01,Wunderground v.1.15,2013-07-02 08:37:00,
2013-07-02 04:38:00,77.4,73.6,29.96,SE,131,0.0,4.0,88,0.00,,,0.01,Wunderground v.1.15,2013-07-02 08:38:00,
2013-07-02 04:42:00,77.5,73.7,29.96,ESE,117,0.0,4.0,88,0.00,,,0.01,Wunderground v.1.15,2013-07-02 08:42:00,
2013-07-02 04:46:00,77.5,74.0,29.96,SE,139,0.0,4.0,89,0.00,,,0.01,Wunderground v.1.15,2013-07-02 08:46:00,
2013-07-02 04:47:00,77.6,74.1,29.96,SE,139,0.0,4.0,89,0.00,,,0.01,Wunderground v.1.15,2013-07-02 08:47:00,
2013-07-02 04:49:00,77.6,74.1,29.96,SE,139,0.0,4.0,89,0.00,,,0.01,Wunderground v.1.15,2013-07-02 08:49:00,
2013-07-02 04:52:00,77.8,74.6,29.96,SE,125,0.0,4.0,90,0.00,,,0.01,Wunderground v.1.15,2013-07-02 08:52:00,
2013-07-02 04:55:00,77.9,75.1,29.96,ESE,111,0.0,4.0,91,0.00,,,0.01,Wunderground v.1.15,2013-07-02 08:55:00,
2013-07-02 04:56:00,78.0,75.2,29.96,ESE,123,0.0,4.0,91,0.00,,,0.01,Wunderground v.1.15,2013-07-02 08:56:00,
2013-07-02 04:58:00,78.1,75.3,29.96,SE,128,0.0,4.0,91,0.00,,,0.01,Wunderground v.1.15,2013-07-02 08:58:00,
2013-07-02 05:00:00,78.2,75.4,29.96,SE,128,0.0,0.0,91,0.00,,,0.01,Wunderground v.1.15,2013-07-02 09:00:00,
2013-07-02 05:02:00,78.3,75.5,29.96,SE,128,0.0,0.0,91,0.00,,,0.01,Wunderground v.1.15,2013-07-02 09:02:00,
2013-07-02 05:03:00,78.4,75.6,29.96,SSE,166,0.0,0.0,91,0.00,,,0.01,Wunderground v.1.15,2013-07-02 09:03:00,
2013-07-02 05:04:00,78.4,75.6,29.96,SSE,148,0.0,0.0,91,0.00,,,0.01,Wunderground v.1.15,2013-07-02 09:04:00,
2013-07-02 05:07:00,78.5,75.7,29.96,SE,136,0.0,1.0,91,0.00,,,0.01,Wunderground v.1.15,2013-07-02 09:07:00,
2013-07-02 05:08:00,78.5,75.7,29.96,SE,143,0.0,1.0,91,0.00,,,0.01,Wunderground v.1.15,2013-07-02 09:08:00,
2013-07-02 05:09:00,78.6,76.1,29.96,SE,128,0.0,1.0,92,0.00,,,0.01,Wunderground v.1.15,2013-07-02 09:09:00,
2013-07-02 05:10:00,78.6,76.1,29.96,SSE,147,0.0,1.0,92,0.00,,,0.01,Wunderground v.1.15,2013-07-02 09:10:00,
2013-07-02 05:13:00,78.9,76.4,29.96,ESE,123,1.0,4.0,92,0.00,,,0.01,Wunderground v.1.15,2013-07-02 09:13:00,
2013-07-02 05:16:00,79.3,76.8,29.96,East,101,2.0,4.0,92,0.00,,,0.01,Wunderground v.1.15,2013-07-02 09:16:00,
2013-07-02 05:17:00,79.4,76.5,29.96,SE,129,2.0,4.0,91,0.00,,,0.01,Wunderground v.1.15,2013-07-02 09:17:00,
2013-07-02 05:20:00,79.9,77.0,29.97,SE,127,3.0,5.0,91,0.00,,,0.01,Wunderground v.1.15,2013-07-02 09:20:00,
2013-07-02 05:22:00,80.1,76.9,29.96,SE,128,4.0,5.0,90,0.00,,,0.01,Wunderground v.1.15,2013-07-02 09:22:00,
2013-07-02 05:24:00,80.4,77.2,29.97,SE,129,4.0,5.0,90,0.00,,,0.01,Wunderground v.1.15,2013-07-02 09:24:00,
2013-07-02 05:25:00,80.5,77.3,29.96,SSE,153,4.0,5.0,90,0.00,,,0.01,Wunderground v.1.15,2013-07-02 09:25:00,
2013-07-02 05:26:00,80.5,77.3,29.97,SSE,150,4.0,5.0,90,0.00,,,0.01,Wunderground v.1.15,2013-07-02 09:26:00,
2013-07-02 05:27:00,80.6,77.1,29.97,ESE,114,4.0,5.0,89,0.00,,,0.01,Wunderground v.1.15,2013-07-02 09:27:00,
2013-07-02 05:28:00,80.7,77.2,29.97,SE,124,4.0,5.0,89,0.00,,,0.01,Wunderground v.1.15,2013-07-02 09:28:00,
2013-07-02 05:30:00,80.8,77.3,29.97,SE,129,4.0,4.0,89,0.00,,,0.01,Wunderground v.1.15,2013-07-02 09:30:00,
2013-07-02 05:32:00,80.8,77.3,29.97,NE,53,4.0,4.0,89,0.00,,,0.01,Wunderground v.1.15,2013-07-02 09:32:00,
2013-07-02 05:33:00,80.9,77.4,29.97,ESE,108,4.0,4.0,89,0.00,,,0.01,Wunderground v.1.15,2013-07-02 09:33:00,
2013-07-02 05:34:00,80.9,77.4,29.97,SSE,155,4.0,4.0,89,0.00,,,0.01,Wunderground v.1.15,2013-07-02 09:34:00,
2013-07-02 05:36:00,81.0,77.4,29.97,ESE,116,4.0,5.0,89,0.00,,,0.01,Wunderground v.1.15,2013-07-02 09:36:00,
2013-07-02 05:39:00,81.0,77.1,29.97,SE,138,4.0,5.0,88,0.00,,,0.01,Wunderground v.1.15,2013-07-02 09:39:00,
2013-07-02 05:40:00,81.0,77.1,29.97,SE,137,4.0,4.0,88,0.00,,,0.01,Wunderground v.1.15,2013-07-02 09:40:00,
2013-07-02 05:43:00,81.1,77.2,29.97,SSE,157,3.0,4.0,88,0.00,,,0.01,Wunderground v.1.15,2013-07-02 09:43:00,
2013-07-02 05:46:00,81.2,77.3,29.97,SE,133,3.0,6.0,88,0.00,,,0.01,Wunderground v.1.15,2013-07-02 09:46:00,
2013-07-02 05:48:00,81.2,77.3,29.97,ESE,120,3.0,7.0,88,0.00,,,0.01,Wunderground v.1.15,2013-07-02 09:48:00,
2013-07-02 05:49:00,81.2,77.3,29.97,East,88,3.0,7.0,88,0.00,,,0.01,Wunderground v.1.15,2013-07-02 09:49:00,
2013-07-02 05:53:00,81.3,77.1,29.97,SE,124,4.0,9.0,87,0.00,,,0.01,Wunderground v.1.15,2013-07-02 09:53:00,
2013-07-02 05:57:00,81.3,77.1,29.98,ESE,114,4.0,9.0,87,0.00,,,0.01,Wunderground v.1.15,2013-07-02 09:57:00,
2013-07-02 05:59:00,81.3,77.1,29.98,SSE,148,3.0,9.0,87,0.00,,,0.01,Wunderground v.1.15,2013-07-02 09:59:00,
2013-07-02 06:00:00,81.4,77.2,29.98,ESE,113,4.0,4.0,87,0.00,,,0.01,Wunderground v.1.15,2013-07-02 10:00:00,
2013-07-02 06:02:00,81.4,77.2,29.98,SE,138,4.0,5.0,87,0.00,,,0.01,Wunderground v.1.15,2013-07-02 10:02:00,
2013-07-02 06:04:00,81.4,77.2,29.98,SSE,148,4.0,5.0,87,0.00,,,0.01,Wunderground v.1.15,2013-07-02 10:04:00,
2013-07-02 06:06:00,81.5,77.3,29.98,SE,141,4.0,6.0,87,0.00,,,0.01,Wunderground v.1.15,2013-07-02 10:06:00,
2013-07-02 06:08:00,81.5,77.3,29.98,South,188,3.0,6.0,87,0.00,,,0.01,Wunderground v.1.15,2013-07-02 10:08:00,
2013-07-02 06:11:00,81.5,77.3,29.98,SSE,153,3.0,4.0,87,0.00,,,0.01,Wunderground v.1.15,2013-07-02 10:11:00,
2013-07-02 06:14:00,81.4,77.2,29.98,ENE,58,3.0,5.0,87,0.00,,,0.01,Wunderground v.1.15,2013-07-02 10:14:00,
2013-07-02 06:16:00,81.4,77.2,29.98,ESE,117,3.0,6.0,87,0.00,,,0.01,Wunderground v.1.15,2013-07-02 10:16:00,
2013-07-02 06:17:00,81.5,77.3,29.98,ESE,103,3.0,6.0,87,0.00,,,0.01,Wunderground v.1.15,2013-07-02 10:17:00,
2013-07-02 06:18:00,81.5,77.3,29.98,SSE,155,3.0,6.0,87,0.00,,,0.01,Wunderground v.1.15,2013-07-02 10:18:00,
2013-07-02 06:21:00,81.6,77.4,29.98,ESE,120,4.0,5.0,87,0.00,,,0.01,Wunderground v.1.15,2013-07-02 10:21:00,
2013-07-02 06:22:00,81.6,77.4,29.98,SE,136,4.0,5.0,87,0.00,,,0.01,Wunderground v.1.15,2013-07-02 10:22:00,
2013-07-02 06:23:00,81.6,77.4,29.98,SE,140,4.0,6.0,87,0.00,,,0.01,Wunderground v.1.15,2013-07-02 10:23:00,
2013-07-02 06:26:00,81.6,77.4,29.99,SE,136,4.0,6.0,87,0.00,,,0.01,Wunderground v.1.15,2013-07-02 10:26:00,
2013-07-02 06:28:00,81.6,77.4,29.98,ESE,112,4.0,6.0,87,0.00,,,0.01,Wunderground v.1.15,2013-07-02 10:28:00,
2013-07-02 06:29:00,81.6,77.4,29.99,East,94,4.0,6.0,87,0.00,,,0.01,Wunderground v.1.15,2013-07-02 10:29:00,
2013-07-02 06:30:00,81.6,77.4,29.99,SE,129,4.0,4.0,87,0.00,,,0.01,Wunderground v.1.15,2013-07-02 10:30:00,
2013-07-02 06:32:00,81.6,77.4,29.99,South,170,4.0,9.0,87,0.00,,,0.01,Wunderground v.1.15,2013-07-02 10:32:00,
2013-07-02 06:35:00,81.6,77.4,29.99,SE,131,4.0,9.0,87,0.00,,,0.01,Wunderground v.1.15,2013-07-02 10:35:00,
2013-07-02 06:37:00,81.6,77.4,29.99,ESE,117,4.0,9.0,87,0.00,,,0.01,Wunderground v.1.15,2013-07-02 10:37:00,
2013-07-02 06:38:00,81.6,77.4,29.99,SE,126,4.0,9.0,87,0.00,,,0.01,Wunderground v.1.15,2013-07-02 10:38:00,
2013-07-02 06:43:00,81.6,77.0,29.99,SE,130,3.0,9.0,86,0.00,,,0.01,Wunderground v.1.15,2013-07-02 10:43:00,
2013-07-02 06:44:00,81.6,77.0,29.99,East,86,4.0,9.0,86,0.00,,,0.01,Wunderground v.1.15,2013-07-02 10:44:00,
2013-07-02 06:47:00,81.6,77.0,29.99,SE,127,3.0,9.0,86,0.00,,,0.01,Wunderground v.1.15,2013-07-02 10:47:00,
2013-07-02 06:48:00,81.6,77.4,29.99,SSE,153,3.0,9.0,87,0.00,,,0.01,Wunderground v.1.15,2013-07-02 10:48:00,
2013-07-02 06:49:00,81.6,77.4,29.99,ESE,121,3.0,9.0,87,0.00,,,0.01,Wunderground v.1.15,2013-07-02 10:49:00,
2013-07-02 06:50:00,81.6,77.4,29.99,East,82,3.0,9.0,87,0.00,,,0.01,Wunderground v.1.15,2013-07-02 10:50:00,
2013-07-02 06:54:00,81.6,77.4,30.00,ESE,119,3.0,9.0,87,0.00,,,0.01,Wunderground v.1.15,2013-07-02 10:54:00,
2013-07-02 06:56:00,81.6,77.4,30.00,SE,129,3.0,9.0,87,0.00,,,0.01,Wunderground v.1.15,2013-07-02 10:56:00,
2013-07-02 06:57:00,81.6,77.4,30.00,SE,129,3.0,9.0,87,0.00,,,0.01,Wunderground v.1.15,2013-07-02 10:57:00,
2013-07-02 07:01:00,81.7,77.5,30.00,East,96,3.0,3.0,87,0.00,,,0.01,Wunderground v.1.15,2013-07-02 11:01:00,
2013-07-02 07:03:00,81.7,77.5,30.00,SSE,160,3.0,6.0,87,0.00,,,0.01,Wunderground v.1.15,2013-07-02 11:03:00,
2013-07-02 07:04:00,81.7,77.5,30.00,ESE,105,3.0,6.0,87,0.00,,,0.01,Wunderground v.1.15,2013-07-02 11:04:00,
2013-07-02 07:06:00,81.8,77.5,30.00,SE,134,4.0,6.0,87,0.00,,,0.01,Wunderground v.1.15,2013-07-02 11:06:00,
2013-07-02 07:07:00,81.8,77.5,30.00,SSW,193,4.0,6.0,87,0.00,,,0.01,Wunderground v.1.15,2013-07-02 11:07:00,
2013-07-02 07:09:00,81.8,77.5,30.00,SE,131,4.0,6.0,87,0.00,,,0.01,Wunderground v.1.15,2013-07-02 11:09:00,
2013-07-02 07:10:00,81.8,77.5,30.00,ESE,118,3.0,3.0,87,0.00,,,0.01,Wunderground v.1.15,2013-07-02 11:10:00,
2013-07-02 07:15:00,81.9,77.6,30.00,SE,129,3.0,5.0,87,0.00,,,0.01,Wunderground v.1.15,2013-07-02 11:15:00,
2013-07-02 07:16:00,81.8,77.2,30.00,SE,139,3.0,5.0,86,0.00,,,0.01,Wunderground v.1.15,2013-07-02 11:16:00,
2013-07-02 07:19:00,81.9,77.3,30.00,SE,146,3.0,5.0,86,0.00,,,0.01,Wunderground v.1.15,2013-07-02 11:19:00,
2013-07-02 07:21:00,81.9,77.3,30.00,ESE,113,3.0,3.0,86,0.00,,,0.01,Wunderground v.1.15,2013-07-02 11:21:00,
2013-07-02 07:22:00,82.0,77.4,30.00,ESE,120,3.0,3.0,86,0.00,,,0.01,Wunderground v.1.15,2013-07-02 11:22:00,
2013-07-02 07:25:00,82.0,77.4,30.00,ESE,120,3.0,5.0,86,0.00,,,0.01,Wunderground v.1.15,2013-07-02 11:25:00,
2013-07-02 07:29:00,82.1,77.5,30.00,SSE,150,2.0,5.0,86,0.00,,,0.01,Wunderground v.1.15,2013-07-02 11:29:00,
2013-07-02 07:30:00,82.2,77.6,30.00,ESE,102,3.0,3.0,86,0.00,,,0.01,Wunderground v.1.15,2013-07-02 11:30:00,
2013-07-02 07:32:00,82.2,77.2,30.00,NE,48,3.0,9.0,85,0.00,,,0.01,Wunderground v.1.15,2013-07-02 11:32:00,
2013-07-02 07:36:00,82.4,77.4,30.00,ESE,107,3.0,9.0,85,0.00,,,0.01,Wunderground v.1.15,2013-07-02 11:36:00,
2013-07-02 07:38:00,82.6,77.6,30.00,East,101,3.0,9.0,85,0.00,,,0.01,Wunderground v.1.15,2013-07-02 11:38:00,
2013-07-02 07:43:00,82.9,77.9,30.00,SE,143,3.0,9.0,85,0.00,,,0.01,Wunderground v.1.15,2013-07-02 11:43:00,
2013-07-02 07:45:00,82.9,77.6,30.01,SSE,148,3.0,9.0,84,0.00,,,0.01,Wunderground v.1.15,2013-07-02 11:45:00,
2013-07-02 07:46:00,82.9,77.6,30.01,SE,142,3.0,9.0,84,0.00,,,0.01,Wunderground v.1.15,2013-07-02 11:46:00,
2013-07-02 07:48:00,82.9,77.6,30.01,ESE,117,3.0,9.0,84,0.00,,,0.01,Wunderground v.1.15,2013-07-02 11:48:00,
2013-07-02 07:50:00,83.0,77.7,30.01,SSE,160,3.0,9.0,84,0.00,,,0.01,Wunderground v.1.15,2013-07-02 11:50:00,
2013-07-02 07:51:00,83.0,77.7,30.00,SE,129,3.0,9.0,84,0.00,,,0.01,Wunderground v.1.15,2013-07-02 11:51:00,
2013-07-02 07:55:00,83.2,77.9,30.01,ESE,106,3.0,9.0,84,0.00,,,0.01,Wunderground v.1.15,2013-07-02 11:55:00,
2013-07-02 07:57:00,83.3,77.6,30.00,SSE,152,3.0,9.0,83,0.00,,,0.01,Wunderground v.1.15,2013-07-02 11:57:00,
2013-07-02 07:58:00,83.4,77.7,30.00,ESE,105,3.0,9.0,83,0.00,,,0.01,Wunderground v.1.15,2013-07-02 11:58:00,
2013-07-02 07:59:00,83.5,77.8,30.00,SE,137,3.0,9.0,83,0.00,,,0.01,Wunderground v.1.15,2013-07-02 11:59:00,
2013-07-02 08:00:00,83.5,77.8,30.01,SE,146,3.0,3.0,83,0.00,,,0.01,Wunderground v.1.15,2013-07-02 12:00:00,
2013-07-02 08:02:00,83.6,77.5,30.01,SSE,148,3.0,6.0,82,0.00,,,0.01,Wunderground v.1.15,2013-07-02 12:02:00,
2013-07-02 08:05:00,83.6,77.9,30.01,SE,131,4.0,6.0,83,0.00,,,0.01,Wunderground v.1.15,2013-07-02 12:05:00,
2013-07-02 08:07:00,83.7,78.0,30.01,ESE,105,3.0,6.0,83,0.00,,,0.01,Wunderground v.1.15,2013-07-02 12:07:00,
2013-07-02 08:08:00,83.7,78.0,30.01,SW,235,4.0,6.0,83,0.00,,,0.01,Wunderground v.1.15,2013-07-02 12:08:00,
2013-07-02 08:09:00,83.7,78.0,30.01,SE,145,4.0,8.0,83,0.00,,,0.01,Wunderground v.1.15,2013-07-02 12:09:00,
2013-07-02 08:12:00,83.7,78.0,30.02,ESE,113,4.0,6.0,83,0.00,,,0.01,Wunderground v.1.15,2013-07-02 12:12:00,
2013-07-02 08:14:00,83.7,78.0,30.02,SE,143,4.0,6.0,83,0.00,,,0.01,Wunderground v.1.15,2013-07-02 12:14:00,
2013-07-02 08:15:00,83.7,78.0,30.02,SSE,151,4.0,6.0,83,0.00,,,0.01,Wunderground v.1.15,2013-07-02 12:15:00,
2013-07-02 08:16:00,83.7,78.0,30.02,SE,144,4.0,6.0,83,0.00,,,0.01,Wunderground v.1.15,2013-07-02 12:16:00,
2013-07-02 08:21:00,83.7,78.0,30.02,SE,143,3.0,4.0,83,0.00,,,0.01,Wunderground v.1.15,2013-07-02 12:21:00,
2013-07-02 08:22:00,83.7,78.0,30.02,SE,143,3.0,4.0,83,0.00,,,0.01,Wunderground v.1.15,2013-07-02 12:22:00,
2013-07-02 08:23:00,83.7,78.0,30.02,SE,131,3.0,4.0,83,0.00,,,0.01,Wunderground v.1.15,2013-07-02 12:23:00,
2013-07-02 08:24:00,83.7,78.0,30.02,ESE,123,3.0,4.0,83,0.00,,,0.01,Wunderground v.1.15,2013-07-02 12:24:00,
2013-07-02 08:27:00,83.8,78.1,30.02,SSE,149,3.0,4.0,83,0.00,,,0.01,Wunderground v.1.15,2013-07-02 12:27:00,
2013-07-02 08:29:00,83.8,78.1,30.02,ESE,102,3.0,6.0,83,0.00,,,0.01,Wunderground v.1.15,2013-07-02 12:29:00,
2013-07-02 08:32:00,83.9,77.8,30.02,SE,134,3.0,9.0,82,0.00,,,0.01,Wunderground v.1.15,2013-07-02 12:32:00,
2013-07-02 08:33:00,84.0,77.9,30.02,ESE,106,3.0,9.0,82,0.00,,,0.01,Wunderground v.1.15,2013-07-02 12:33:00,
2013-07-02 08:34:00,84.0,77.9,30.02,SSE,154,3.0,9.0,82,0.00,,,0.01,Wunderground v.1.15,2013-07-02 12:34:00,
2013-07-02 08:35:00,84.0,77.9,30.02,ESE,120,3.0,9.0,82,0.00,,,0.01,Wunderground v.1.15,2013-07-02 12:35:00,
2013-07-02 08:39:00,84.1,77.6,30.02,ESE,122,3.0,9.0,81,0.00,,,0.01,Wunderground v.1.15,2013-07-02 12:39:00,
2013-07-02 08:40:00,84.1,77.6,30.02,ESE,115,3.0,9.0,81,0.00,,,0.01,Wunderground v.1.15,2013-07-02 12:40:00,
2013-07-02 08:41:00,84.1,77.6,30.02,SSE,147,4.0,9.0,81,0.00,,,0.01,Wunderground v.1.15,2013-07-02 12:41:00,
2013-07-02 08:43:00,84.1,77.6,30.02,ESE,117,4.0,9.0,81,0.00,,,0.01,Wunderground v.1.15,2013-07-02 12:43:00,
2013-07-02 08:47:00,84.1,77.6,30.02,ESE,121,5.0,9.0,81,0.00,,,0.01,Wunderground v.1.15,2013-07-02 12:47:00,
2013-07-02 08:48:00,84.1,77.3,30.02,SSE,154,5.0,9.0,80,0.00,,,0.01,Wunderground v.1.15,2013-07-02 12:48:00,
2013-07-02 08:50:00,84.1,77.6,30.02,ESE,120,5.0,9.0,81,0.00,,,0.01,Wunderground v.1.15,2013-07-02 12:50:00,
2013-07-02 08:51:00,84.1,77.6,30.02,ESE,113,5.0,9.0,81,0.00,,,0.01,Wunderground v.1.15,2013-07-02 12:51:00,
2013-07-02 08:53:00,84.2,77.7,30.03,ESE,108,4.0,9.0,81,0.00,,,0.01,Wunderground v.1.15,2013-07-02 12:53:00,
2013-07-02 08:54:00,84.2,77.7,30.02,SSE,162,4.0,9.0,81,0.00,,,0.01,Wunderground v.1.15,2013-07-02 12:54:00,
2013-07-02 08:55:00,84.2,77.7,30.03,ESE,122,4.0,9.0,81,0.00,,,0.01,Wunderground v.1.15,2013-07-02 12:55:00,
2013-07-02 08:57:00,84.2,77.7,30.03,SE,136,4.0,9.0,81,0.00,,,0.01,Wunderground v.1.15,2013-07-02 12:57:00,
2013-07-02 08:59:00,84.2,77.4,30.03,SE,139,4.0,9.0,80,0.00,,,0.01,Wunderground v.1.15,2013-07-02 12:59:00,
2013-07-02 09:00:00,84.2,77.4,30.03,SE,126,4.0,4.0,80,0.00,,,0.01,Wunderground v.1.15,2013-07-02 13:00:00,
2013-07-02 09:01:00,84.2,77.4,30.03,SSE,162,4.0,4.0,80,0.00,,,0.01,Wunderground v.1.15,2013-07-02 13:01:00,
2013-07-02 09:04:00,84.1,77.3,30.03,ESE,102,5.0,8.0,80,0.00,,,0.01,Wunderground v.1.15,2013-07-02 13:04:00,
2013-07-02 09:06:00,84.1,77.3,30.03,SSE,158,5.0,8.0,80,0.00,,,0.01,Wunderground v.1.15,2013-07-02 13:06:00,
2013-07-02 09:07:00,84.1,77.3,30.03,SSE,157,5.0,8.0,80,0.00,,,0.01,Wunderground v.1.15,2013-07-02 13:07:00,
2013-07-02 09:09:00,84.2,77.7,30.03,SE,146,5.0,8.0,81,0.00,,,0.01,Wunderground v.1.15,2013-07-02 13:09:00,
2013-07-02 09:10:00,84.2,77.7,30.03,South,171,5.0,5.0,81,0.00,,,0.01,Wunderground v.1.15,2013-07-02 13:10:00,
2013-07-02 09:13:00,84.2,77.4,30.03,ENE,72,5.0,5.0,80,0.00,,,0.01,Wunderground v.1.15,2013-07-02 13:13:00,
2013-07-02 09:14:00,84.2,77.7,30.03,SSE,149,5.0,5.0,81,0.00,,,0.01,Wunderground v.1.15,2013-07-02 13:14:00,
2013-07-02 09:15:00,84.2,77.7,30.03,East,100,4.0,5.0,81,0.00,,,0.01,Wunderground v.1.15,2013-07-02 13:15:00,
2013-07-02 09:16:00,84.3,77.8,30.03,SSE,150,4.0,5.0,81,0.00,,,0.01,Wunderground v.1.15,2013-07-02 13:16:00,
2013-07-02 09:17:00,84.3,77.8,30.03,SSE,157,4.0,5.0,81,0.00,,,0.01,Wunderground v.1.15,2013-07-02 13:17:00,
2013-07-02 09:20:00,84.4,77.9,30.03,SE,141,4.0,8.0,81,0.00,,,0.01,Wunderground v.1.15,2013-07-02 13:20:00,
2013-07-02 09:21:00,84.4,77.9,30.03,SSE,148,4.0,8.0,81,0.00,,,0.01,Wunderground v.1.15,2013-07-02 13:21:00,
2013-07-02 09:23:00,84.5,78.0,30.03,SE,137,4.0,8.0,81,0.00,,,0.01,Wunderground v.1.15,2013-07-02 13:23:00,
2013-07-02 09:25:00,84.5,77.6,30.03,SE,135,5.0,13.0,80,0.00,,,0.01,Wunderground v.1.15,2013-07-02 13:25:00,
2013-07-02 09:27:00,84.6,77.7,30.03,ESE,122,5.0,13.0,80,0.00,,,0.01,Wunderground v.1.15,2013-07-02 13:27:00,
2013-07-02 09:28:00,84.6,77.4,30.03,SE,135,5.0,13.0,79,0.00,,,0.01,Wunderground v.1.15,2013-07-02 13:28:00,
2013-07-02 09:32:00,84.7,77.8,30.03,SE,132,6.0,10.0,80,0.00,,,0.01,Wunderground v.1.15,2013-07-02 13:32:00,
2013-07-02 09:33:00,84.7,77.8,30.03,SE,130,6.0,10.0,80,0.00,,,0.01,Wunderground v.1.15,2013-07-02 13:33:00,
2013-07-02 09:34:00,84.7,77.8,30.03,ESE,114,6.0,10.0,80,0.00,,,0.01,Wunderground v.1.15,2013-07-02 13:34:00,
2013-07-02 09:36:00,84.7,77.5,30.03,ESE,122,5.0,10.0,79,0.00,,,0.01,Wunderground v.1.15,2013-07-02 13:36:00,
2013-07-02 09:38:00,84.7,77.5,30.03,East,92,5.0,10.0,79,0.00,,,0.01,Wunderground v.1.15,2013-07-02 13:38:00,
2013-07-02 09:39:00,84.7,77.5,30.03,East,85,5.0,10.0,79,0.00,,,0.01,Wunderground v.1.15,2013-07-02 13:39:00,
2013-07-02 09:43:00,84.8,77.6,30.03,SE,135,5.0,10.0,79,0.00,,,0.01,Wunderground v.1.15,2013-07-02 13:43:00,
2013-07-02 09:44:00,84.8,77.6,30.03,ESE,122,5.0,10.0,79,0.00,,,0.01,Wunderground v.1.15,2013-07-02 13:44:00,
2013-07-02 09:46:00,84.8,77.6,30.03,SSE,167,5.0,10.0,79,0.00,,,0.01,Wunderground v.1.15,2013-07-02 13:46:00,
2013-07-02 09:48:00,84.9,77.7,30.03,SE,130,5.0,10.0,79,0.00,,,0.01,Wunderground v.1.15,2013-07-02 13:48:00,
2013-07-02 09:49:00,84.9,77.7,30.03,SE,136,4.0,10.0,79,0.00,,,0.01,Wunderground v.1.15,2013-07-02 13:49:00,
2013-07-02 09:53:00,84.7,77.5,30.03,SE,135,5.0,10.0,79,0.00,,,0.01,Wunderground v.1.15,2013-07-02 13:53:00,
2013-07-02 09:54:00,84.7,77.5,30.03,SE,138,5.0,10.0,79,0.00,,,0.01,Wunderground v.1.15,2013-07-02 13:54:00,
2013-07-02 09:55:00,84.7,77.5,30.04,South,187,5.0,10.0,79,0.00,,,0.01,Wunderground v.1.15,2013-07-02 13:55:00,
2013-07-02 09:57:00,84.6,77.4,30.04,SSE,163,6.0,10.0,79,0.00,,,0.01,Wunderground v.1.15,2013-07-02 13:57:00,
2013-07-02 09:58:00,84.5,77.3,30.04,SE,134,6.0,10.0,79,0.00,,,0.01,Wunderground v.1.15,2013-07-02 13:58:00,
2013-07-02 10:02:00,84.5,77.3,30.04,ESE,120,6.0,12.0,79,0.00,,,0.01,Wunderground v.1.15,2013-07-02 14:02:00,
2013-07-02 10:05:00,84.3,77.5,30.04,SE,134,6.0,12.0,80,0.00,,,0.01,Wunderground v.1.15,2013-07-02 14:05:00,
2013-07-02 10:07:00,84.3,77.5,30.04,SE,124,6.0,12.0,80,0.00,,,0.01,Wunderground v.1.15,2013-07-02 14:07:00,
2013-07-02 10:10:00,84.4,77.6,30.04,ENE,70,6.0,6.0,80,0.00,,,0.01,Wunderground v.1.15,2013-07-02 14:10:00,
2013-07-02 10:11:00,84.4,77.6,30.04,SE,129,6.0,6.0,80,0.00,,,0.01,Wunderground v.1.15,2013-07-02 14:11:00,
2013-07-02 10:13:00,84.5,77.6,30.04,SSE,153,6.0,6.0,80,0.00,,,0.01,Wunderground v.1.15,2013-07-02 14:13:00,
2013-07-02 10:15:00,84.7,77.8,30.04,SE,136,5.0,6.0,80,0.00,,,0.01,Wunderground v.1.15,2013-07-02 14:15:00,
2013-07-02 10:16:00,84.7,77.8,30.04,ENE,68,5.0,9.0,80,0.00,,,0.01,Wunderground v.1.15,2013-07-02 14:16:00,
2013-07-02 10:19:00,85.1,77.8,30.04,SE,129,5.0,9.0,79,0.00,,,0.01,Wunderground v.1.15,2013-07-02 14:19:00,
2013-07-02 10:20:00,85.2,77.9,30.04,ESE,111,5.0,6.0,79,0.00,,,0.01,Wunderground v.1.15,2013-07-02 14:20:00,
2013-07-02 10:21:00,85.3,78.0,30.04,SE,144,5.0,6.0,79,0.00,,,0.01,Wunderground v.1.15,2013-07-02 14:21:00,
2013-07-02 10:22:00,85.4,78.1,30.04,SSE,168,5.0,6.0,79,0.00,,,0.01,Wunderground v.1.15,2013-07-02 14:22:00,
2013-07-02 10:23:00,85.5,77.9,30.04,SSE,156,5.0,6.0,78,0.00,,,0.01,Wunderground v.1.15,2013-07-02 14:23:00,
2013-07-02 10:25:00,85.6,77.9,30.04,SSE,160,5.0,6.0,78,0.00,,,0.01,Wunderground v.1.15,2013-07-02 14:25:00,
2013-07-02 10:27:00,85.8,77.8,30.04,SSE,158,6.0,9.0,77,0.00,,,0.01,Wunderground v.1.15,2013-07-02 14:27:00,
2013-07-02 10:29:00,85.9,77.8,30.04,SE,134,6.0,9.0,77,0.00,,,0.01,Wunderground v.1.15,2013-07-02 14:29:00,
2013-07-02 10:30:00,86.0,78.3,30.04,SE,135,5.0,5.0,78,0.00,,,0.01,Wunderground v.1.15,2013-07-02 14:30:00,
2013-07-02 10:31:00,86.1,78.0,30.04,ESE,113,5.0,13.0,77,0.00,,,0.01,Wunderground v.1.15,2013-07-02 14:31:00,
2013-07-02 10:32:00,86.2,78.1,30.04,SE,129,5.0,13.0,77,0.00,,,0.01,Wunderground v.1.15,2013-07-02 14:32:00,
2013-07-02 10:33:00,86.4,78.3,30.04,SE,143,5.0,13.0,77,0.00,,,0.01,Wunderground v.1.15,2013-07-02 14:33:00,
2013-07-02 10:34:00,86.5,78.4,30.04,ESE,105,5.0,13.0,77,0.00,,,0.01,Wunderground v.1.15,2013-07-02 14:34:00,
2013-07-02 10:37:00,86.6,78.1,30.04,SE,129,5.0,13.0,76,0.00,,,0.01,Wunderground v.1.15,2013-07-02 14:37:00,
2013-07-02 10:41:00,86.4,77.5,30.03,ESE,118,6.0,13.0,75,0.00,,,0.01,Wunderground v.1.15,2013-07-02 14:41:00,
2013-07-02 10:42:00,86.3,77.4,30.03,SSE,155,6.0,13.0,75,0.00,,,0.01,Wunderground v.1.15,2013-07-02 14:42:00,
2013-07-02 10:44:00,86.2,77.3,30.03,SE,134,6.0,13.0,75,0.00,,,0.01,Wunderground v.1.15,2013-07-02 14:44:00,
2013-07-02 10:46:00,86.1,77.2,30.03,ESE,108,6.0,13.0,75,0.00,,,0.01,Wunderground v.1.15,2013-07-02 14:46:00,
2013-07-02 10:47:00,86.1,77.2,30.03,SSE,165,7.0,13.0,75,0.00,,,0.01,Wunderground v.1.15,2013-07-02 14:47:00,
2013-07-02 10:51:00,86.2,77.3,30.03,South,176,6.0,13.0,75,0.00,,,0.01,Wunderground v.1.15,2013-07-02 14:51:00,
2013-07-02 10:52:00,86.3,77.0,30.03,SE,136,6.0,13.0,74,0.00,,,0.01,Wunderground v.1.15,2013-07-02 14:52:00,
2013-07-02 10:53:00,86.3,77.0,30.03,SE,127,6.0,13.0,74,0.00,,,0.01,Wunderground v.1.15,2013-07-02 14:53:00,
2013-07-02 10:54:00,86.4,77.1,30.03,SSE,157,6.0,13.0,74,0.00,,,0.01,Wunderground v.1.15,2013-07-02 14:54:00,
2013-07-02 10:55:00,86.4,77.1,30.03,SE,131,6.0,13.0,74,0.00,,,0.01,Wunderground v.1.15,2013-07-02 14:55:00,
2013-07-02 10:58:00,86.6,76.9,30.03,East,96,6.0,13.0,73,0.00,,,0.01,Wunderground v.1.15,2013-07-02 14:58:00,
2013-07-02 10:59:00,86.7,77.4,30.03,East,87,6.0,13.0,74,0.00,,,0.01,Wunderground v.1.15,2013-07-02 14:59:00,
2013-07-02 11:01:00,86.9,77.6,30.03,SE,144,6.0,6.0,74,0.00,,,0.01,Wunderground v.1.15,2013-07-02 15:01:00,
2013-07-02 11:02:00,86.9,77.2,30.03,SE,130,6.0,6.0,73,0.00,,,0.01,Wunderground v.1.15,2013-07-02 15:02:00,
2013-07-02 11:05:00,87.0,77.7,30.03,SSE,153,6.0,9.0,74,0.00,,,0.01,Wunderground v.1.15,2013-07-02 15:05:00,
2013-07-02 11:06:00,87.0,77.7,30.03,SSE,150,6.0,9.0,74,0.00,,,0.01,Wunderground v.1.15,2013-07-02 15:06:00,
2013-07-02 11:09:00,87.1,77.8,30.03,SE,131,6.0,9.0,74,0.00,,,0.01,Wunderground v.1.15,2013-07-02 15:09:00,
2013-07-02 11:10:00,87.1,77.4,30.03,SE,139,6.0,6.0,73,0.00,,,0.01,Wunderground v.1.15,2013-07-02 15:10:00,
2013-07-02 11:11:00,87.2,77.5,30.03,South,186,6.0,6.0,73,0.00,,,0.01,Wunderground v.1.15,2013-07-02 15:11:00,
2013-07-02 11:13:00,87.3,77.6,30.03,ESE,110,6.0,6.0,73,0.00,,,0.01,Wunderground v.1.15,2013-07-02 15:13:00,
2013-07-02 11:16:00,87.6,77.9,30.03,SE,140,6.0,13.0,73,0.00,,,0.01,Wunderground v.1.15,2013-07-02 15:16:00,
2013-07-02 11:17:00,87.6,77.9,30.03,East,96,7.0,13.0,73,0.00,,,0.01,Wunderground v.1.15,2013-07-02 15:17:00,
2013-07-02 11:19:00,87.8,77.2,30.03,ESE,121,6.0,13.0,71,0.00,,,0.01,Wunderground v.1.15,2013-07-02 15:19:00,
2013-07-02 11:20:00,87.8,77.2,30.03,ESE,113,6.0,6.0,71,0.00,,,0.01,Wunderground v.1.15,2013-07-02 15:20:00,
2013-07-02 11:23:00,87.8,77.6,30.03,SE,141,6.0,6.0,72,0.00,,,0.01,Wunderground v.1.15,2013-07-02 15:23:00,
2013-07-02 11:25:00,87.7,76.7,30.03,SE,139,6.0,7.0,70,0.00,,,0.01,Wunderground v.1.15,2013-07-02 15:25:00,
2013-07-02 11:26:00,87.6,76.6,30.03,NE,49,6.0,7.0,70,0.00,,,0.01,Wunderground v.1.15,2013-07-02 15:26:00,
2013-07-02 11:27:00,87.5,76.9,30.03,ESE,118,6.0,9.0,71,0.00,,,0.01,Wunderground v.1.15,2013-07-02 15:27:00,
2013-07-02 11:29:00,87.3,76.3,30.03,SE,142,6.0,9.0,70,0.00,,,0.01,Wunderground v.1.15,2013-07-02 15:29:00,
2013-07-02 11:30:00,87.2,76.6,30.03,East,86,6.0,8.0,71,0.00,,,0.01,Wunderground v.1.15,2013-07-02 15:30:00,
2013-07-02 11:32:00,87.1,76.5,30.04,ESE,122,6.0,13.0,71,0.00,,,0.01,Wunderground v.1.15,2013-07-02 15:32:00,
2013-07-02 11:34:00,87.0,76.5,30.04,SSE,149,6.0,13.0,71,0.00,,,0.01,Wunderground v.1.15,2013-07-02 15:34:00,
2013-07-02 11:35:00,87.0,76.5,30.04,SSE,163,6.0,13.0,71,0.00,,,0.01,Wunderground v.1.15,2013-07-02 15:35:00,
2013-07-02 11:39:00,87.3,77.2,30.04,South,172,6.0,13.0,72,0.00,,,0.01,Wunderground v.1.15,2013-07-02 15:39:00,
2013-07-02 11:40:00,87.4,77.3,30.03,East,98,6.0,6.0,72,0.00,,,0.01,Wunderground v.1.15,2013-07-02 15:40:00,
2013-07-02 11:41:00,87.5,76.9,30.03,East,83,6.0,13.0,71,0.00,,,0.01,Wunderground v.1.15,2013-07-02 15:41:00,
2013-07-02 11:43:00,87.8,76.8,30.03,SSE,150,6.0,13.0,70,0.00,,,0.01,Wunderground v.1.15,2013-07-02 15:43:00,
2013-07-02 11:46:00,88.1,77.1,30.03,SSE,156,5.0,13.0,70,0.00,,,0.01,Wunderground v.1.15,2013-07-02 15:46:00,
2013-07-02 11:47:00,88.2,77.2,30.03,SSE,154,5.0,13.0,70,0.00,,,0.01,Wunderground v.1.15,2013-07-02 15:47:00,
2013-07-02 11:48:00,88.3,77.3,30.04,ESE,122,6.0,13.0,70,0.00,,,0.01,Wunderground v.1.15,2013-07-02 15:48:00,
2013-07-02 11:49:00,88.4,77.4,30.03,SSE,154,5.0,13.0,70,0.00,,,0.01,Wunderground v.1.15,2013-07-02 15:49:00,
2013-07-02 11:54:00,89.1,77.6,30.04,SE,146,6.0,13.0,69,0.00,,,0.01,Wunderground v.1.15,2013-07-02 15:54:00,
2013-07-02 11:57:00,89.3,77.3,30.04,SSE,149,6.0,13.0,68,0.00,,,0.01,Wunderground v.1.15,2013-07-02 15:57:00,
2013-07-02 11:58:00,89.3,77.8,30.04,SSE,157,5.0,13.0,69,0.00,,,0.01,Wunderground v.1.15,2013-07-02 15:58:00,
2013-07-02 12:00:00,89.3,77.3,30.04,South,188,6.0,6.0,68,0.00,,,0.01,Wunderground v.1.15,2013-07-02 16:00:00,
2013-07-02 12:01:00,89.2,76.8,30.04,NE,41,6.0,6.0,67,0.00,,,0.01,Wunderground v.1.15,2013-07-02 16:01:00,
2013-07-02 12:04:00,88.7,76.8,30.04,ENE,61,5.0,7.0,68,0.00,,,0.01,Wunderground v.1.15,2013-07-02 16:04:00,
2013-07-02 12:05:00,88.5,76.6,30.04,SE,144,5.0,7.0,68,0.00,,,0.01,Wunderground v.1.15,2013-07-02 16:05:00,
2013-07-02 12:07:00,88.2,76.7,30.04,SE,132,6.0,9.0,69,0.00,,,0.01,Wunderground v.1.15,2013-07-02 16:07:00,
2013-07-02 12:08:00,88.0,77.0,30.04,SE,142,6.0,9.0,70,0.00,,,0.01,Wunderground v.1.15,2013-07-02 16:08:00,
2013-07-02 12:11:00,87.6,76.6,30.04,South,178,6.0,6.0,70,0.00,,,0.01,Wunderground v.1.15,2013-07-02 16:11:00,
2013-07-02 12:12:00,87.5,76.5,30.04,East,82,6.0,10.0,70,0.00,,,0.01,Wunderground v.1.15,2013-07-02 16:12:00,
2013-07-02 12:15:00,87.2,76.6,30.05,SE,127,6.0,10.0,71,0.00,,,0.01,Wunderground v.1.15,2013-07-02 16:15:00,
2013-07-02 12:19:00,86.9,76.4,30.05,South,171,6.0,10.0,71,0.00,,,0.01,Wunderground v.1.15,2013-07-02 16:19:00,
2013-07-02 12:20:00,86.8,76.7,30.04,SE,146,6.0,7.0,72,0.00,,,0.01,Wunderground v.1.15,2013-07-02 16:20:00,
2013-07-02 12:23:00,86.6,76.9,30.04,ESE,123,5.0,7.0,73,0.00,,,0.01,Wunderground v.1.15,2013-07-02 16:23:00,
2013-07-02 12:25:00,86.5,76.8,30.04,SSE,162,5.0,7.0,73,0.00,,,0.01,Wunderground v.1.15,2013-07-02 16:25:00,
2013-07-02 12:26:00,86.5,76.8,30.04,ESE,112,5.0,7.0,73,0.00,,,0.01,Wunderground v.1.15,2013-07-02 16:26:00,
2013-07-02 12:28:00,86.5,76.4,30.04,SSE,148,5.0,7.0,72,0.00,,,0.01,Wunderground v.1.15,2013-07-02 16:28:00,
2013-07-02 12:31:00,86.5,76.8,30.04,South,181,4.0,16.0,73,0.00,,,0.01,Wunderground v.1.15,2013-07-02 16:31:00,
2013-07-02 12:32:00,86.5,77.2,30.05,East,89,4.0,16.0,74,0.00,,,0.01,Wunderground v.1.15,2013-07-02 16:32:00,
2013-07-02 12:33:00,86.5,77.2,30.05,South,174,4.0,16.0,74,0.00,,,0.01,Wunderground v.1.15,2013-07-02 16:33:00,
2013-07-02 12:36:00,86.4,77.1,30.05,SSE,167,4.0,16.0,74,0.00,,,0.01,Wunderground v.1.15,2013-07-02 16:36:00,
2013-07-02 12:37:00,86.4,77.1,30.05,SSE,156,4.0,16.0,74,0.00,,,0.01,Wunderground v.1.15,2013-07-02 16:37:00,
2013-07-02 12:38:00,86.4,77.1,30.05,ESE,119,4.0,16.0,74,0.00,,,0.01,Wunderground v.1.15,2013-07-02 16:38:00,
2013-07-02 12:39:00,86.4,77.1,30.05,SE,134,4.0,16.0,74,0.00,,,0.01,Wunderground v.1.15,2013-07-02 16:39:00,
2013-07-02 12:43:00,86.2,76.9,30.05,SE,134,5.0,16.0,74,0.00,,,0.01,Wunderground v.1.15,2013-07-02 16:43:00,
2013-07-02 12:44:00,86.2,77.3,30.05,ESE,114,5.0,16.0,75,0.00,,,0.01,Wunderground v.1.15,2013-07-02 16:44:00,
2013-07-02 12:45:00,86.1,77.2,30.05,SSE,165,5.0,16.0,75,0.00,,,0.01,Wunderground v.1.15,2013-07-02 16:45:00,
2013-07-02 12:47:00,86.1,77.2,30.05,SE,136,5.0,16.0,75,0.00,,,0.01,Wunderground v.1.15,2013-07-02 16:47:00,
2013-07-02 12:50:00,86.2,77.3,30.05,SE,141,5.0,5.0,75,0.00,,,0.01,Wunderground v.1.15,2013-07-02 16:50:00,
2013-07-02 12:53:00,86.4,77.9,30.05,SSE,148,4.0,16.0,76,0.00,,,0.01,Wunderground v.1.15,2013-07-02 16:53:00,
2013-07-02 12:55:00,86.6,77.7,30.05,SE,141,4.0,16.0,75,0.00,,,0.01,Wunderground v.1.15,2013-07-02 16:55:00,
2013-07-02 12:56:00,86.6,77.7,30.05,ESE,105,4.0,16.0,75,0.00,,,0.01,Wunderground v.1.15,2013-07-02 16:56:00,
2013-07-02 12:57:00,86.5,77.2,30.05,South,188,4.0,16.0,74,0.00,,,0.01,Wunderground v.1.15,2013-07-02 16:57:00,
2013-07-02 12:58:00,86.5,76.8,30.05,ESE,123,4.0,16.0,73,0.00,,,0.01,Wunderground v.1.15,2013-07-02 16:58:00,
2013-07-02 13:00:00,86.4,77.1,30.05,SE,136,5.0,5.0,74,0.00,,,0.01,Wunderground v.1.15,2013-07-02 17:00:00,
2013-07-02 13:03:00,86.5,77.6,30.05,SE,130,5.0,7.0,75,0.00,,,0.01,Wunderground v.1.15,2013-07-02 17:03:00,
2013-07-02 13:04:00,86.4,77.5,30.05,SSE,164,5.0,7.0,75,0.00,,,0.01,Wunderground v.1.15,2013-07-02 17:04:00,
2013-07-02 13:05:00,86.4,77.5,30.05,SE,144,5.0,7.0,75,0.00,,,0.01,Wunderground v.1.15,2013-07-02 17:05:00,
2013-07-02 13:07:00,86.3,77.4,30.05,South,172,5.0,8.0,75,0.00,,,0.01,Wunderground v.1.15,2013-07-02 17:07:00,
2013-07-02 13:09:00,86.1,77.2,30.05,East,94,6.0,8.0,75,0.00,,,0.01,Wunderground v.1.15,2013-07-02 17:09:00,
2013-07-02 13:14:00,86.0,77.9,30.05,SSE,150,5.0,6.0,77,0.00,,,0.01,Wunderground v.1.15,2013-07-02 17:14:00,
2013-07-02 13:15:00,86.0,77.5,30.05,SSE,159,5.0,9.0,76,0.00,,,0.01,Wunderground v.1.15,2013-07-02 17:15:00,
2013-07-02 13:17:00,85.8,77.4,30.05,SSE,151,6.0,9.0,76,0.00,,,0.01,Wunderground v.1.15,2013-07-02 17:17:00,
2013-07-02 13:18:00,85.7,77.3,30.05,SE,124,6.0,9.0,76,0.00,,,0.01,Wunderground v.1.15,2013-07-02 17:18:00,
2013-07-02 13:20:00,85.5,77.9,30.05,SSE,150,6.0,6.0,78,0.00,,,0.01,Wunderground v.1.15,2013-07-02 17:20:00,
2013-07-02 13:23:00,85.4,78.5,30.05,SSE,151,5.0,6.0,80,0.00,,,0.01,Wunderground v.1.15,2013-07-02 17:23:00,
2013-07-02 13:24:00,85.3,78.4,30.05,SSE,165,5.0,6.0,80,0.00,,,0.01,Wunderground v.1.15,2013-07-02 17:24:00,
2013-07-02 13:27:00,85.2,79.1,30.05,SSE,152,4.0,6.0,82,0.00,,,0.01,Wunderground v.1.15,2013-07-02 17:27:00,
2013-07-02 13:29:00,85.1,78.6,30.05,SSE,154,3.0,6.0,81,0.00,,,0.01,Wunderground v.1.15,2013-07-02 17:29:00,
2013-07-02 13:30:00,85.0,78.5,30.05,South,172,3.0,3.0,81,0.00,,,0.01,Wunderground v.1.15,2013-07-02 17:30:00,
2013-07-02 13:33:00,84.9,78.8,30.05,SSE,162,3.0,13.0,82,0.00,,,0.01,Wunderground v.1.15,2013-07-02 17:33:00,
2013-07-02 13:37:00,84.9,79.2,30.05,ESE,117,3.0,13.0,83,0.00,,,0.01,Wunderground v.1.15,2013-07-02 17:37:00,
2013-07-02 13:38:00,84.9,78.8,30.05,SSE,155,3.0,13.0,82,0.00,,,0.01,Wunderground v.1.15,2013-07-02 17:38:00,
2013-07-02 13:39:00,84.9,78.4,30.05,SSE,162,3.0,13.0,81,0.00,,,0.01,Wunderground v.1.15,2013-07-02 17:39:00,
2013-07-02 13:40:00,84.9,79.2,30.05,SSE,153,3.0,3.0,83,0.00,,,0.01,Wunderground v.1.15,2013-07-02 17:40:00,
2013-07-02 13:44:00,85.0,78.9,30.04,SSE,160,2.0,13.0,82,0.00,,,0.01,Wunderground v.1.15,2013-07-02 17:44:00,
2013-07-02 13:47:00,85.1,79.4,30.04,SSE,157,2.0,13.0,83,0.00,,,0.01,Wunderground v.1.15,2013-07-02 17:47:00,
2013-07-02 13:48:00,85.1,79.0,30.04,SE,133,2.0,13.0,82,0.00,,,0.01,Wunderground v.1.15,2013-07-02 17:48:00,
2013-07-02 13:49:00,85.1,78.6,30.04,SSE,158,2.0,13.0,81,0.00,,,0.01,Wunderground v.1.15,2013-07-02 17:49:00,
2013-07-02 13:52:00,85.0,78.5,30.04,ESE,120,3.0,13.0,81,0.00,,,0.01,Wunderground v.1.15,2013-07-02 17:52:00,
2013-07-02 13:53:00,85.0,78.5,30.03,SSE,155,3.0,13.0,81,0.00,,,0.01,Wunderground v.1.15,2013-07-02 17:53:00,
2013-07-02 13:55:00,85.0,78.1,30.03,SSE,156,3.0,13.0,80,0.00,,,0.01,Wunderground v.1.15,2013-07-02 17:55:00,
2013-07-02 13:57:00,85.0,77.8,30.03,ESE,105,3.0,13.0,79,0.00,,,0.01,Wunderground v.1.15,2013-07-02 17:57:00,
2013-07-02 14:00:00,85.4,78.1,30.03,East,93,4.0,4.0,79,0.00,,,0.01,Wunderground v.1.15,2013-07-02 18:00:00,
2013-07-02 14:01:00,85.4,77.8,30.03,SSE,155,4.0,6.0,78,0.00,,,0.01,Wunderground v.1.15,2013-07-02 18:01:00,
2013-07-02 14:03:00,85.6,77.6,30.03,SE,134,4.0,6.0,77,0.00,,,0.01,Wunderground v.1.15,2013-07-02 18:03:00,
2013-07-02 14:04:00,85.7,77.7,30.03,SSE,156,4.0,10.0,77,0.00,,,0.01,Wunderground v.1.15,2013-07-02 18:04:00,
2013-07-02 14:05:00,85.7,77.3,30.03,ESE,119,4.0,10.0,76,0.00,,,0.01,Wunderground v.1.15,2013-07-02 18:05:00,
2013-07-02 14:08:00,85.8,77.8,30.03,SSW,194,5.0,10.0,77,0.00,,,0.01,Wunderground v.1.15,2013-07-02 18:08:00,
2013-07-02 14:10:00,85.9,77.5,30.03,SE,140,5.0,9.0,76,0.00,,,0.01,Wunderground v.1.15,2013-07-02 18:10:00,
2013-07-02 14:11:00,86.0,77.5,30.03,SSE,168,5.0,9.0,76,0.00,,,0.01,Wunderground v.1.15,2013-07-02 18:11:00,
2013-07-02 14:14:00,86.3,77.4,30.03,East,91,5.0,9.0,75,0.00,,,0.01,Wunderground v.1.15,2013-07-02 18:14:00,
2013-07-02 14:16:00,86.4,77.1,30.03,East,79,5.0,9.0,74,0.00,,,0.01,Wunderground v.1.15,2013-07-02 18:16:00,
2013-07-02 14:17:00,86.4,77.1,30.03,SE,128,4.0,9.0,74,0.00,,,0.01,Wunderground v.1.15,2013-07-02 18:17:00,
2013-07-02 14:21:00,86.5,77.6,30.03,East,91,4.0,4.0,75,0.00,,,0.01,Wunderground v.1.15,2013-07-02 18:21:00,
2013-07-02 14:22:00,86.5,77.2,30.03,NE,41,4.0,5.0,74,0.00,,,0.01,Wunderground v.1.15,2013-07-02 18:22:00,
2013-07-02 14:23:00,86.5,77.2,30.03,ESE,108,5.0,5.0,74,0.00,,,0.01,Wunderground v.1.15,2013-07-02 18:23:00,
2013-07-02 14:24:00,86.5,76.8,30.03,SE,143,5.0,5.0,73,0.00,,,0.01,Wunderground v.1.15,2013-07-02 18:24:00,
2013-07-02 14:28:00,86.7,77.0,30.02,SSE,155,5.0,7.0,73,0.00,,,0.01,Wunderground v.1.15,2013-07-02 18:28:00,
2013-07-02 14:29:00,86.7,77.0,30.02,South,177,5.0,7.0,73,0.00,,,0.01,Wunderground v.1.15,2013-07-02 18:29:00,
2013-07-02 14:32:00,86.9,77.6,30.03,SSE,148,4.0,13.0,74,0.00,,,0.01,Wunderground v.1.15,2013-07-02 18:32:00,
2013-07-02 14:34:00,86.8,76.7,30.02,SSE,154,5.0,13.0,72,0.00,,,0.01,Wunderground v.1.15,2013-07-02 18:34:00,
2013-07-02 14:35:00,86.8,77.1,30.03,SE,127,5.0,13.0,73,0.00,,,0.01,Wunderground v.1.15,2013-07-02 18:35:00,
2013-07-02 14:37:00,86.6,76.9,30.03,East,97,5.0,13.0,73,0.00,,,0.01,Wunderground v.1.15,2013-07-02 18:37:00,
2013-07-02 14:39:00,86.6,76.9,30.03,SE,132,6.0,13.0,73,0.00,,,0.01,Wunderground v.1.15,2013-07-02 18:39:00,
2013-07-02 14:40:00,86.5,76.8,30.03,SE,124,6.0,6.0,73,0.00,,,0.01,Wunderground v.1.15,2013-07-02 18:40:00,
2013-07-02 14:41:00,86.5,77.2,30.03,ESE,122,6.0,13.0,74,0.00,,,0.01,Wunderground v.1.15,2013-07-02 18:41:00,
2013-07-02 14:42:00,86.6,77.3,30.03,SE,131,6.0,13.0,74,0.00,,,0.01,Wunderground v.1.15,2013-07-02 18:42:00,
2013-07-02 14:43:00,86.6,77.3,30.03,ESE,111,5.0,13.0,74,0.00,,,0.01,Wunderground v.1.15,2013-07-02 18:43:00,
2013-07-02 14:47:00,86.7,77.0,30.03,ESE,105,4.0,13.0,73,0.00,,,0.01,Wunderground v.1.15,2013-07-02 18:47:00,
2013-07-02 14:50:00,86.7,77.0,30.03,SSE,148,4.0,13.0,73,0.00,,,0.01,Wunderground v.1.15,2013-07-02 18:50:00,
2013-07-02 14:51:00,86.7,77.0,30.03,SSE,151,4.0,13.0,73,0.00,,,0.01,Wunderground v.1.15,2013-07-02 18:51:00,
2013-07-02 14:52:00,86.6,76.9,30.03,East,89,4.0,13.0,73,0.00,,,0.01,Wunderground v.1.15,2013-07-02 18:52:00,
2013-07-02 14:53:00,86.6,76.9,30.03,SE,136,4.0,13.0,73,0.00,,,0.01,Wunderground v.1.15,2013-07-02 18:53:00,
2013-07-02 14:55:00,86.5,76.8,30.03,ESE,113,5.0,13.0,73,0.00,,,0.01,Wunderground v.1.15,2013-07-02 18:55:00,
2013-07-02 14:56:00,86.5,77.2,30.03,SE,124,5.0,13.0,74,0.00,,,0.01,Wunderground v.1.15,2013-07-02 18:56:00,
2013-07-02 14:58:00,86.5,77.2,30.03,SSE,148,5.0,13.0,74,0.00,,,0.01,Wunderground v.1.15,2013-07-02 18:58:00,
2013-07-02 15:01:00,86.4,77.1,30.03,SE,133,4.0,5.0,74,0.00,,,0.01,Wunderground v.1.15,2013-07-02 19:01:00,
2013-07-02 15:02:00,86.4,77.5,30.03,South,170,4.0,5.0,75,0.00,,,0.01,Wunderground v.1.15,2013-07-02 19:02:00,
2013-07-02 15:05:00,86.2,76.9,30.04,SE,137,4.0,6.0,74,0.00,,,0.01,Wunderground v.1.15,2013-07-02 19:05:00,
2013-07-02 15:06:00,86.1,76.8,30.04,ENE,71,4.0,6.0,74,0.00,,,0.01,Wunderground v.1.15,2013-07-02 19:06:00,
2013-07-02 15:07:00,86.0,77.1,30.03,SE,134,4.0,6.0,75,0.00,,,0.01,Wunderground v.1.15,2013-07-02 19:07:00,
2013-07-02 15:09:00,85.9,77.1,30.03,SE,139,4.0,6.0,75,0.00,,,0.01,Wunderground v.1.15,2013-07-02 19:09:00,
2013-07-02 15:13:00,85.7,76.9,30.03,SE,131,4.0,5.0,75,0.00,,,0.01,Wunderground v.1.15,2013-07-02 19:13:00,
2013-07-02 15:14:00,85.7,76.5,30.03,SSE,152,4.0,5.0,74,0.00,,,0.01,Wunderground v.1.15,2013-07-02 19:14:00,
2013-07-02 15:16:00,85.7,76.9,30.03,SSE,153,4.0,5.0,75,0.00,,,0.01,Wunderground v.1.15,2013-07-02 19:16:00,
2013-07-02 15:18:00,85.6,76.4,30.03,NE,44,4.0,5.0,74,0.00,,,0.01,Wunderground v.1.15,2013-07-02 19:18:00,
2013-07-02 15:19:00,85.6,76.4,30.03,SSE,155,4.0,5.0,74,0.00,,,0.01,Wunderground v.1.15,2013-07-02 19:19:00,
2013-07-02 15:23:00,85.7,76.9,30.03,SE,143,4.0,5.0,75,0.00,,,0.01,Wunderground v.1.15,2013-07-02 19:23:00,
2013-07-02 15:24:00,85.7,76.5,30.02,SSE,156,4.0,5.0,74,0.00,,,0.01,Wunderground v.1.15,2013-07-02 19:24:00,
2013-07-02 15:25:00,85.7,76.5,30.02,ESE,106,3.0,5.0,74,0.00,,,0.01,Wunderground v.1.15,2013-07-02 19:25:00,
2013-07-02 15:27:00,85.8,76.5,30.02,SSE,165,3.0,5.0,74,0.00,,,0.01,Wunderground v.1.15,2013-07-02 19:27:00,
2013-07-02 15:30:00,85.8,76.1,30.02,SE,144,3.0,3.0,73,0.00,,,0.01,Wunderground v.1.15,2013-07-02 19:30:00,
2013-07-02 15:31:00,85.8,76.5,30.02,SE,131,3.0,13.0,74,0.00,,,0.01,Wunderground v.1.15,2013-07-02 19:31:00,
2013-07-02 15:34:00,86.0,77.1,30.02,SSE,152,3.0,13.0,75,0.00,,,0.01,Wunderground v.1.15,2013-07-02 19:34:00,
2013-07-02 15:36:00,86.2,77.3,30.02,SE,139,3.0,13.0,75,0.00,,,0.01,Wunderground v.1.15,2013-07-02 19:36:00,
2013-07-02 15:37:00,86.3,77.0,30.02,SSE,158,3.0,13.0,74,0.00,,,0.01,Wunderground v.1.15,2013-07-02 19:37:00,
2013-07-02 15:38:00,86.3,77.0,30.02,SE,125,3.0,13.0,74,0.00,,,0.01,Wunderground v.1.15,2013-07-02 19:38:00,
2013-07-02 15:39:00,86.4,77.1,30.02,SE,128,2.0,13.0,74,0.00,,,0.01,Wunderground v.1.15,2013-07-02 19:39:00,
2013-07-02 15:40:00,86.5,76.8,30.02,SE,129,3.0,13.0,73,0.00,,,0.01,Wunderground v.1.15,2013-07-02 19:40:00,
2013-07-02 15:45:00,86.7,76.6,30.02,ESE,120,4.0,13.0,72,0.00,,,0.01,Wunderground v.1.15,2013-07-02 19:45:00,
2013-07-02 15:46:00,86.8,76.7,30.02,ESE,116,4.0,13.0,72,0.00,,,0.01,Wunderground v.1.15,2013-07-02 19:46:00,
2013-07-02 15:47:00,86.8,76.7,30.02,SE,125,4.0,13.0,72,0.00,,,0.01,Wunderground v.1.15,2013-07-02 19:47:00,
2013-07-02 15:48:00,86.9,76.8,30.02,SSE,150,4.0,13.0,72,0.00,,,0.01,Wunderground v.1.15,2013-07-02 19:48:00,
2013-07-02 15:51:00,87.3,76.3,30.02,SSE,148,5.0,13.0,70,0.00,,,0.01,Wunderground v.1.15,2013-07-02 19:51:00,
2013-07-02 15:52:00,87.4,76.4,30.02,SE,128,5.0,13.0,70,0.00,,,0.01,Wunderground v.1.15,2013-07-02 19:52:00,
2013-07-02 15:57:00,88.0,76.5,30.02,ESE,117,4.0,13.0,69,0.00,,,0.01,Wunderground v.1.15,2013-07-02 19:57:00,
2013-07-02 15:59:00,88.2,76.7,30.02,East,88,4.0,13.0,69,0.00,,,0.01,Wunderground v.1.15,2013-07-02 19:59:00,
2013-07-02 16:00:00,88.2,77.2,30.02,SSE,147,5.0,5.0,70,0.00,,,0.01,Wunderground v.1.15,2013-07-02 20:00:00,
2013-07-02 16:01:00,88.2,76.7,30.02,SE,136,4.0,7.0,69,0.00,,,0.01,Wunderground v.1.15,2013-07-02 20:01:00,
2013-07-02 16:03:00,88.2,76.7,30.02,SSE,160,5.0,7.0,69,0.00,,,0.01,Wunderground v.1.15,2013-07-02 20:03:00,
2013-07-02 16:06:00,88.2,76.7,30.02,South,179,5.0,7.0,69,0.00,,,0.01,Wunderground v.1.15,2013-07-02 20:06:00,
2013-07-02 16:08:00,88.0,76.5,30.02,South,188,5.0,7.0,69,0.00,,,0.01,Wunderground v.1.15,2013-07-02 20:08:00,
2013-07-02 16:10:00,87.9,76.0,30.01,ESE,105,5.0,5.0,68,0.00,,,0.01,Wunderground v.1.15,2013-07-02 20:10:00,
2013-07-02 16:11:00,87.8,75.9,30.01,SE,129,5.0,5.0,68,0.00,,,0.01,Wunderground v.1.15,2013-07-02 20:11:00,
2013-07-02 16:13:00,87.7,75.8,30.01,ENE,72,5.0,6.0,68,0.00,,,0.01,Wunderground v.1.15,2013-07-02 20:13:00,
2013-07-02 16:15:00,87.8,76.4,30.01,SE,136,5.0,6.0,69,0.00,,,0.01,Wunderground v.1.15,2013-07-02 20:15:00,
2013-07-02 16:16:00,87.8,76.4,30.01,SSE,152,5.0,6.0,69,0.00,,,0.01,Wunderground v.1.15,2013-07-02 20:16:00,
2013-07-02 16:18:00,87.6,76.2,30.01,SE,132,5.0,8.0,69,0.00,,,0.01,Wunderground v.1.15,2013-07-02 20:18:00,
2013-07-02 16:21:00,87.4,76.4,30.01,South,176,5.0,7.0,70,0.00,,,0.01,Wunderground v.1.15,2013-07-02 20:21:00,
2013-07-02 16:23:00,87.3,76.3,30.01,SSE,167,5.0,7.0,70,0.00,,,0.01,Wunderground v.1.15,2013-07-02 20:23:00,
2013-07-02 16:24:00,87.3,76.3,30.01,South,186,6.0,7.0,70,0.00,,,0.01,Wunderground v.1.15,2013-07-02 20:24:00,
2013-07-02 16:26:00,87.1,76.5,30.00,ESE,120,6.0,7.0,71,0.00,,,0.01,Wunderground v.1.15,2013-07-02 20:26:00,
2013-07-02 16:27:00,87.0,76.5,30.01,ESE,111,6.0,7.0,71,0.00,,,0.01,Wunderground v.1.15,2013-07-02 20:27:00,
2013-07-02 16:29:00,86.9,75.1,30.01,SW,214,6.0,7.0,68,0.00,,,0.01,Wunderground v.1.15,2013-07-02 20:29:00,
2013-07-02 16:33:00,86.4,73.2,30.01,SSE,149,5.0,9.0,65,0.00,,,0.01,Wunderground v.1.15,2013-07-02 20:33:00,
2013-07-02 16:34:00,86.2,72.6,30.01,ENE,66,5.0,9.0,64,0.00,,,0.01,Wunderground v.1.15,2013-07-02 20:34:00,
2013-07-02 16:36:00,86.0,72.4,30.01,SE,142,5.0,10.0,64,0.00,,,0.01,Wunderground v.1.15,2013-07-02 20:36:00,
2013-07-02 16:41:00,85.2,71.2,30.01,SE,137,4.0,9.0,63,0.00,,,0.01,Wunderground v.1.15,2013-07-02 20:41:00,
2013-07-02 16:43:00,84.9,71.4,30.01,SSE,156,4.0,9.0,64,0.00,,,0.01,Wunderground v.1.15,2013-07-02 20:43:00,
2013-07-02 16:45:00,84.7,71.6,30.01,SSE,148,4.0,9.0,65,0.00,,,0.01,Wunderground v.1.15,2013-07-02 20:45:00,
2013-07-02 16:46:00,84.6,72.4,30.01,SE,140,3.0,9.0,67,0.00,,,0.01,Wunderground v.1.15,2013-07-02 20:46:00,
2013-07-02 16:47:00,84.5,72.8,30.01,SE,138,3.0,9.0,68,0.00,,,0.01,Wunderground v.1.15,2013-07-02 20:47:00,
2013-07-02 16:52:00,84.3,74.3,30.01,SE,136,2.0,9.0,72,0.00,,,0.01,Wunderground v.1.15,2013-07-02 20:52:00,
2013-07-02 16:53:00,84.3,74.3,30.01,SSE,153,2.0,9.0,72,0.00,,,0.01,Wunderground v.1.15,2013-07-02 20:53:00,
2013-07-02 16:54:00,84.3,74.7,30.01,ESE,116,2.0,9.0,73,0.00,,,0.01,Wunderground v.1.15,2013-07-02 20:54:00,
2013-07-02 16:55:00,84.2,74.6,30.01,SE,136,2.0,9.0,73,0.00,,,0.01,Wunderground v.1.15,2013-07-02 20:55:00,
2013-07-02 16:57:00,84.2,75.0,30.01,SSE,165,2.0,9.0,74,0.00,,,0.01,Wunderground v.1.15,2013-07-02 20:57:00,
2013-07-02 17:00:00,84.3,75.9,30.01,SSE,150,2.0,3.0,76,0.00,,,0.01,Wunderground v.1.15,2013-07-02 21:00:00,
2013-07-02 17:01:00,84.3,75.9,30.01,East,81,2.0,3.0,76,0.00,,,0.01,Wunderground v.1.15,2013-07-02 21:01:00,
2013-07-02 17:03:00,84.4,76.4,30.00,SE,133,2.0,3.0,77,0.00,,,0.01,Wunderground v.1.15,2013-07-02 21:03:00,
2013-07-02 17:04:00,84.4,76.4,30.00,East,96,2.0,5.0,77,0.00,,,0.01,Wunderground v.1.15,2013-07-02 21:04:00,
2013-07-02 17:08:00,84.3,76.3,30.01,SE,136,3.0,7.0,77,0.00,,,0.01,Wunderground v.1.15,2013-07-02 21:08:00,
2013-07-02 17:09:00,84.3,76.7,30.01,SSE,152,3.0,7.0,78,0.00,,,0.01,Wunderground v.1.15,2013-07-02 21:09:00,
2013-07-02 17:13:00,84.3,76.7,30.00,South,172,3.0,4.0,78,0.00,,,0.01,Wunderground v.1.15,2013-07-02 21:13:00,
2013-07-02 17:14:00,84.3,77.1,30.00,ESE,115,3.0,4.0,79,0.00,,,0.01,Wunderground v.1.15,2013-07-02 21:14:00,
2013-07-02 17:16:00,84.4,77.2,30.00,South,184,3.0,4.0,79,0.00,,,0.01,Wunderground v.1.15,2013-07-02 21:16:00,
2013-07-02 17:17:00,84.4,77.2,30.00,SE,131,2.0,4.0,79,0.00,,,0.01,Wunderground v.1.15,2013-07-02 21:17:00,
2013-07-02 17:19:00,84.5,76.9,30.00,SE,144,2.0,5.0,78,0.00,,,0.01,Wunderground v.1.15,2013-07-02 21:19:00,
2013-07-02 17:22:00,84.5,76.9,30.00,SE,126,2.0,3.0,78,0.00,,,0.01,Wunderground v.1.15,2013-07-02 21:22:00,
2013-07-02 17:25:00,84.4,76.8,30.00,SSE,167,2.0,4.0,78,0.00,,,0.01,Wunderground v.1.15,2013-07-02 21:25:00,
2013-07-02 17:26:00,84.4,76.8,30.00,ESE,113,2.0,4.0,78,0.00,,,0.01,Wunderground v.1.15,2013-07-02 21:26:00,
2013-07-02 17:27:00,84.4,76.8,30.00,SSW,212,2.0,4.0,78,0.00,,,0.01,Wunderground v.1.15,2013-07-02 21:27:00,
2013-07-02 17:28:00,84.4,76.8,30.00,SE,136,2.0,4.0,78,0.00,,,0.01,Wunderground v.1.15,2013-07-02 21:28:00,
2013-07-02 17:29:00,84.4,76.4,30.00,SSE,160,2.0,4.0,77,0.00,,,0.01,Wunderground v.1.15,2013-07-02 21:29:00,
2013-07-02 17:32:00,84.5,76.5,30.01,SE,133,2.0,11.0,77,0.00,,,0.01,Wunderground v.1.15,2013-07-02 21:32:00,
2013-07-02 17:34:00,84.6,76.6,30.01,ESE,113,2.0,11.0,77,0.00,,,0.01,Wunderground v.1.15,2013-07-02 21:34:00,
2013-07-02 17:36:00,84.6,76.2,30.01,SSE,158,2.0,11.0,76,0.00,,,0.01,Wunderground v.1.15,2013-07-02 21:36:00,
2013-07-02 17:37:00,84.6,76.2,30.01,SSE,161,2.0,11.0,76,0.00,,,0.01,Wunderground v.1.15,2013-07-02 21:37:00,
2013-07-02 17:38:00,84.6,76.6,30.01,SSE,165,2.0,11.0,77,0.00,,,0.01,Wunderground v.1.15,2013-07-02 21:38:00,
2013-07-02 17:40:00,84.7,76.3,30.01,SSE,151,2.0,11.0,76,0.00,,,0.01,Wunderground v.1.15,2013-07-02 21:40:00,
2013-07-02 17:41:00,84.7,76.3,30.01,SE,143,2.0,11.0,76,0.00,,,0.01,Wunderground v.1.15,2013-07-02 21:41:00,
2013-07-02 17:43:00,84.7,76.3,30.01,ESE,110,2.0,11.0,76,0.00,,,0.01,Wunderground v.1.15,2013-07-02 21:43:00,
2013-07-02 17:44:00,84.8,76.0,30.01,SSE,164,2.0,11.0,75,0.00,,,0.01,Wunderground v.1.15,2013-07-02 21:44:00,
2013-07-02 17:47:00,84.8,76.0,30.01,South,174,2.0,11.0,75,0.00,,,0.01,Wunderground v.1.15,2013-07-02 21:47:00,
2013-07-02 17:48:00,84.8,76.0,30.01,SE,139,2.0,11.0,75,0.00,,,0.01,Wunderground v.1.15,2013-07-02 21:48:00,
2013-07-02 17:50:00,84.8,76.4,30.02,South,172,2.0,2.0,76,0.00,,,0.01,Wunderground v.1.15,2013-07-02 21:50:00,
2013-07-02 17:51:00,84.8,76.0,30.02,SSE,150,2.0,11.0,75,0.00,,,0.01,Wunderground v.1.15,2013-07-02 21:51:00,
2013-07-02 17:54:00,84.9,76.1,30.02,SSE,147,1.0,11.0,75,0.00,,,0.01,Wunderground v.1.15,2013-07-02 21:54:00,
2013-07-02 17:56:00,84.9,75.7,30.02,ESE,120,1.0,11.0,74,0.00,,,0.01,Wunderground v.1.15,2013-07-02 21:56:00,
2013-07-02 17:58:00,84.9,75.7,30.02,SSW,192,0.0,11.0,74,0.00,,,0.01,Wunderground v.1.15,2013-07-02 21:58:00,
2013-07-02 17:59:00,84.8,75.6,30.02,South,188,1.0,11.0,74,0.00,,,0.01,Wunderground v.1.15,2013-07-02 21:59:00,
2013-07-02 18:02:00,84.7,75.5,30.02,SSE,167,1.0,2.0,74,0.00,,,0.01,Wunderground v.1.15,2013-07-02 22:02:00,
2013-07-02 18:06:00,84.7,75.5,30.03,SSE,161,1.0,2.0,74,0.00,,,0.01,Wunderground v.1.15,2013-07-02 22:06:00,
2013-07-02 18:07:00,84.7,75.5,30.03,SSE,149,1.0,2.0,74,0.00,,,0.01,Wunderground v.1.15,2013-07-02 22:07:00,
2013-07-02 18:09:00,84.6,75.4,30.03,SSW,205,1.0,2.0,74,0.00,,,0.01,Wunderground v.1.15,2013-07-02 22:09:00,
2013-07-02 18:10:00,84.6,75.4,30.03,SSE,152,1.0,1.0,74,0.00,,,0.01,Wunderground v.1.15,2013-07-02 22:10:00,
2013-07-02 18:11:00,84.5,75.3,30.03,WSW,248,1.0,1.0,74,0.00,,,0.01,Wunderground v.1.15,2013-07-02 22:11:00,
2013-07-02 18:16:00,84.5,75.3,30.04,SSW,192,1.0,2.0,74,0.00,,,0.01,Wunderground v.1.15,2013-07-02 22:16:00,
2013-07-02 18:17:00,84.4,75.2,30.04,South,169,1.0,2.0,74,0.00,,,0.01,Wunderground v.1.15,2013-07-02 22:17:00,
2013-07-02 18:18:00,84.4,75.2,30.04,SSE,165,1.0,2.0,74,0.00,,,0.01,Wunderground v.1.15,2013-07-02 22:18:00,
2013-07-02 18:23:00,84.3,75.1,30.04,SSE,153,1.0,3.0,74,0.00,,,0.01,Wunderground v.1.15,2013-07-02 22:23:00,
2013-07-02 18:24:00,84.3,75.1,30.04,SSE,165,1.0,3.0,74,0.00,,,0.01,Wunderground v.1.15,2013-07-02 22:24:00,
2013-07-02 18:25:00,84.2,75.0,30.04,SSE,165,1.0,3.0,74,0.00,,,0.01,Wunderground v.1.15,2013-07-02 22:25:00,
2013-07-02 18:28:00,84.1,74.9,30.04,SSE,158,1.0,3.0,74,0.00,,,0.01,Wunderground v.1.15,2013-07-02 22:28:00,
2013-07-02 18:29:00,84.1,74.9,30.04,SSE,155,1.0,3.0,74,0.00,,,0.01,Wunderground v.1.15,2013-07-02 22:29:00,
2013-07-02 18:30:00,84.1,74.9,30.05,SE,134,1.0,1.0,74,0.00,,,0.01,Wunderground v.1.15,2013-07-02 22:30:00,
2013-07-02 18:31:00,84.1,74.9,30.05,SW,229,1.0,9.0,74,0.00,,,0.01,Wunderground v.1.15,2013-07-02 22:31:00,
2013-07-02 18:34:00,84.1,75.3,30.05,SSE,153,1.0,9.0,75,0.00,,,0.01,Wunderground v.1.15,2013-07-02 22:34:00,
2013-07-02 18:38:00,84.1,75.3,30.05,SW,220,1.0,9.0,75,0.00,,,0.01,Wunderground v.1.15,2013-07-02 22:38:00,
2013-07-02 18:39:00,84.0,75.2,30.05,SE,133,2.0,9.0,75,0.00,,,0.01,Wunderground v.1.15,2013-07-02 22:39:00,
2013-07-02 18:40:00,83.9,75.1,30.05,ESE,118,2.0,9.0,75,0.00,,,0.01,Wunderground v.1.15,2013-07-02 22:40:00,
2013-07-02 18:44:00,83.8,75.0,30.05,ESE,118,2.0,9.0,75,0.00,,,0.01,Wunderground v.1.15,2013-07-02 22:44:00,
2013-07-02 18:45:00,83.8,75.0,30.05,South,180,2.0,9.0,75,0.00,,,0.01,Wunderground v.1.15,2013-07-02 22:45:00,
2013-07-02 18:51:00,83.7,74.5,30.06,SW,219,2.0,9.0,74,0.00,,,0.01,Wunderground v.1.15,2013-07-02 22:51:00,
2013-07-02 18:52:00,83.7,74.1,30.05,SE,135,2.0,9.0,73,0.00,,,0.01,Wunderground v.1.15,2013-07-02 22:52:00,
2013-07-02 18:53:00,83.7,74.1,30.06,SSW,204,2.0,9.0,73,0.00,,,0.01,Wunderground v.1.15,2013-07-02 22:53:00,
2013-07-02 18:56:00,83.7,74.1,30.05,SSW,195,1.0,9.0,73,0.00,,,0.01,Wunderground v.1.15,2013-07-02 22:56:00,
2013-07-02 18:57:00,83.6,74.0,30.05,South,181,1.0,9.0,73,0.00,,,0.01,Wunderground v.1.15,2013-07-02 22:57:00,
2013-07-02 18:58:00,83.6,74.0,30.05,SSW,196,1.0,9.0,73,0.00,,,0.01,Wunderground v.1.15,2013-07-02 22:58:00,
2013-07-02 19:00:00,83.6,74.0,30.05,SE,144,1.0,1.0,73,0.00,,,0.01,Wunderground v.1.15,2013-07-02 23:00:00,
2013-07-02 19:02:00,83.6,73.6,30.06,South,187,1.0,1.0,72,0.00,,,0.01,Wunderground v.1.15,2013-07-02 23:02:00,
2013-07-02 19:03:00,83.6,74.0,30.06,ESE,116,1.0,1.0,73,0.00,,,0.01,Wunderground v.1.15,2013-07-02 23:03:00,
2013-07-02 19:05:00,83.5,73.5,30.06,SE,125,0.0,1.0,72,0.00,,,0.01,Wunderground v.1.15,2013-07-02 23:05:00,
2013-07-02 19:08:00,83.5,73.9,30.06,SE,137,1.0,1.0,73,0.00,,,0.01,Wunderground v.1.15,2013-07-02 23:08:00,
2013-07-02 19:10:00,83.6,73.6,30.06,SSE,160,1.0,1.0,72,0.00,,,0.01,Wunderground v.1.15,2013-07-02 23:10:00,
2013-07-02 19:11:00,83.6,74.0,30.06,SSE,160,1.0,1.0,73,0.00,,,0.01,Wunderground v.1.15,2013-07-02 23:11:00,
2013-07-02 19:13:00,83.5,73.9,30.06,SSE,160,1.0,1.0,73,0.00,,,0.01,Wunderground v.1.15,2013-07-02 23:13:00,
2013-07-02 19:15:00,83.5,73.9,30.06,SE,146,0.0,1.0,73,0.00,,,0.01,Wunderground v.1.15,2013-07-02 23:15:00,
2013-07-02 19:16:00,83.4,73.8,30.06,SE,146,0.0,1.0,73,0.00,,,0.01,Wunderground v.1.15,2013-07-02 23:16:00,
2013-07-02 19:17:00,83.4,73.8,30.06,SSW,205,0.0,1.0,73,0.00,,,0.01,Wunderground v.1.15,2013-07-02 23:17:00,
2013-07-02 19:19:00,83.4,74.2,30.06,SSW,203,0.0,1.0,74,0.00,,,0.01,Wunderground v.1.15,2013-07-02 23:19:00,
2013-07-02 19:22:00,83.3,74.5,30.06,SSW,210,0.0,1.0,75,0.00,,,0.01,Wunderground v.1.15,2013-07-02 23:22:00,
2013-07-02 19:23:00,83.3,74.5,30.06,SSW,210,0.0,1.0,75,0.00,,,0.01,Wunderground v.1.15,2013-07-02 23:23:00,
2013-07-02 19:24:00,83.2,74.8,30.06,SSW,210,0.0,1.0,76,0.00,,,0.01,Wunderground v.1.15,2013-07-02 23:24:00,
2013-07-02 19:27:00,83.1,74.7,30.06,SW,214,0.0,1.0,76,0.00,,,0.01,Wunderground v.1.15,2013-07-02 23:27:00,
2013-07-02 19:29:00,83.0,74.6,30.05,WSW,241,0.0,1.0,76,0.00,,,0.01,Wunderground v.1.15,2013-07-02 23:29:00,
2013-07-02 19:30:00,82.9,74.9,30.06,NW,319,0.0,1.0,77,0.00,,,0.01,Wunderground v.1.15,2013-07-02 23:30:00,
2013-07-02 19:32:00,82.8,74.8,30.05,WSW,239,0.0,4.0,77,0.00,,,0.01,Wunderground v.1.15,2013-07-02 23:32:00,
2013-07-02 19:33:00,82.7,74.8,30.06,WSW,239,0.0,4.0,77,0.00,,,0.01,Wunderground v.1.15,2013-07-02 23:33:00,
2013-07-02 19:35:00,82.5,74.9,30.06,WNW,287,0.0,4.0,78,0.00,,,0.01,Wunderground v.1.15,2013-07-02 23:35:00,
2013-07-02 19:37:00,82.3,74.7,30.06,WSW,254,0.0,4.0,78,0.00,,,0.01,Wunderground v.1.15,2013-07-02 23:37:00,
2013-07-02 19:40:00,82.1,74.9,30.06,West,268,0.0,4.0,79,0.00,,,0.01,Wunderground v.1.15,2013-07-02 23:40:00,
2013-07-02 19:42:00,82.0,74.8,30.06,SW,223,0.0,4.0,79,0.00,,,0.01,Wunderground v.1.15,2013-07-02 23:42:00,
2013-07-02 19:43:00,81.9,75.1,30.06,SW,223,0.0,4.0,80,0.00,,,0.01,Wunderground v.1.15,2013-07-02 23:43:00,
2013-07-02 19:45:00,81.8,74.6,30.06,SW,224,0.0,4.0,79,0.00,,,0.01,Wunderground v.1.15,2013-07-02 23:45:00,
2013-07-02 19:46:00,81.8,75.0,30.06,SW,222,0.0,4.0,80,0.00,,,0.01,Wunderground v.1.15,2013-07-02 23:46:00,
2013-07-02 19:48:00,81.7,74.9,30.06,SW,223,0.0,4.0,80,0.00,,,0.01,Wunderground v.1.15,2013-07-02 23:48:00,
2013-07-02 19:49:00,81.7,74.9,30.06,WSW,252,0.0,4.0,80,0.00,,,0.01,Wunderground v.1.15,2013-07-02 23:49:00,
2013-07-02 19:51:00,81.7,74.9,30.06,WSW,252,0.0,4.0,80,0.00,,,0.01,Wunderground v.1.15,2013-07-02 23:51:00,
2013-07-02 19:53:00,81.7,74.9,30.06,WSW,252,0.0,4.0,80,0.00,,,0.01,Wunderground v.1.15,2013-07-02 23:53:00,
2013-07-02 19:55:00,81.6,74.8,30.06,WSW,248,0.0,4.0,80,0.00,,,0.01,Wunderground v.1.15,2013-07-02 23:55:00,
2013-07-02 19:56:00,81.6,75.2,30.06,SSW,208,0.0,4.0,81,0.00,,,0.01,Wunderground v.1.15,2013-07-02 23:56:00,
2013-07-02 19:58:00,81.5,75.1,30.06,SSW,209,0.0,4.0,81,0.00,,,0.01,Wunderground v.1.15,2013-07-02 23:58:00,
2013-07-02 19:59:00,81.5,75.1,30.06,South,181,0.0,4.0,81,0.00,,,0.01,Wunderground v.1.15,2013-07-02 23:59:00,
2013-07-02 20:00:00,81.5,75.1,30.06,South,181,0.0,0.0,81,0.00,,,0.01,Wunderground v.1.15,2013-07-03 00:00:00,
2013-07-02 20:02:00,81.4,75.0,30.06,SW,234,0.0,0.0,81,0.00,,,0.01,Wunderground v.1.15,2013-07-03 00:02:00,
2013-07-02 20:04:00,81.4,75.4,30.06,SW,235,0.0,0.0,82,0.00,,,0.01,Wunderground v.1.15,2013-07-03 00:04:00,
2013-07-02 20:05:00,81.3,75.6,30.06,WNW,293,0.0,1.0,83,0.00,,,0.01,Wunderground v.1.15,2013-07-03 00:05:00,
2013-07-02 20:08:00,81.1,75.8,30.06,WNW,302,1.0,7.0,84,0.00,,,0.01,Wunderground v.1.15,2013-07-03 00:08:00,
2013-07-02 20:09:00,80.9,75.6,30.07,West,264,1.0,7.0,84,0.00,,,0.01,Wunderground v.1.15,2013-07-03 00:09:00,
2013-07-02 20:11:00,80.5,74.9,30.07,NW,313,2.0,3.0,83,0.00,,,0.01,Wunderground v.1.15,2013-07-03 00:11:00,
2013-07-02 20:13:00,80.1,75.2,30.07,NW,304,2.0,4.0,85,0.00,,,0.01,Wunderground v.1.15,2013-07-03 00:13:00,
2013-07-02 20:16:00,79.7,74.8,30.07,SSW,208,3.0,4.0,85,0.00,,,0.01,Wunderground v.1.15,2013-07-03 00:16:00,
2013-07-02 20:17:00,79.6,74.7,30.07,SSW,205,3.0,4.0,85,0.00,,,0.01,Wunderground v.1.15,2013-07-03 00:17:00,
2013-07-02 20:18:00,79.5,74.6,30.07,SW,231,2.0,4.0,85,0.00,,,0.01,Wunderground v.1.15,2013-07-03 00:18:00,
2013-07-02 20:19:00,79.4,74.5,30.07,NNW,330,2.0,4.0,85,0.00,,,0.01,Wunderground v.1.15,2013-07-03 00:19:00,
2013-07-02 20:21:00,79.3,74.4,30.07,WNW,302,1.0,2.0,85,0.00,,,0.01,Wunderground v.1.15,2013-07-03 00:21:00,
2013-07-02 20:23:00,79.1,74.2,30.07,WNW,297,1.0,2.0,85,0.00,,,0.01,Wunderground v.1.15,2013-07-03 00:23:00,
2013-07-02 20:24:00,79.1,74.5,30.07,NW,313,1.0,2.0,86,0.00,,,0.01,Wunderground v.1.15,2013-07-03 00:24:00,
2013-07-02 20:26:00,79.0,74.8,30.07,NW,311,0.0,2.0,87,0.00,,,0.01,Wunderground v.1.15,2013-07-03 00:26:00,
2013-07-02 20:27:00,78.9,74.4,30.07,NW,311,1.0,2.0,86,0.00,,,0.01,Wunderground v.1.15,2013-07-03 00:27:00,
2013-07-02 20:31:00,78.7,74.2,30.07,NW,308,1.0,3.0,86,0.00,,,0.01,Wunderground v.1.15,2013-07-03 00:31:00,
2013-07-02 20:32:00,78.7,74.2,30.07,WNW,293,2.0,3.0,86,0.00,,,0.01,Wunderground v.1.15,2013-07-03 00:32:00,
2013-07-02 20:33:00,78.7,74.2,30.07,WNW,303,2.0,3.0,86,0.00,,,0.01,Wunderground v.1.15,2013-07-03 00:33:00,
2013-07-02 20:35:00,78.7,74.5,30.07,WNW,292,2.0,3.0,87,0.00,,,0.01,Wunderground v.1.15,2013-07-03 00:35:00,
2013-07-02 20:36:00,78.6,74.4,30.07,NW,315,2.0,3.0,87,0.00,,,0.01,Wunderground v.1.15,2013-07-03 00:36:00,
2013-07-02 20:39:00,78.6,74.4,30.07,WNW,293,2.0,3.0,87,0.00,,,0.01,Wunderground v.1.15,2013-07-03 00:39:00,
2013-07-02 20:41:00,78.6,74.4,30.07,WNW,299,2.0,2.0,87,0.00,,,0.01,Wunderground v.1.15,2013-07-03 00:41:00,
2013-07-02 20:44:00,78.6,74.4,30.08,NW,320,2.0,2.0,87,0.00,,,0.01,Wunderground v.1.15,2013-07-03 00:44:00,
2013-07-02 20:45:00,78.5,74.3,30.08,WNW,292,2.0,2.0,87,0.00,,,0.01,Wunderground v.1.15,2013-07-03 00:45:00,
2013-07-02 20:46:00,78.5,74.3,30.08,NW,309,2.0,3.0,87,0.00,,,0.01,Wunderground v.1.15,2013-07-03 00:46:00,
2013-07-02 20:47:00,78.5,74.3,30.08,NW,326,2.0,3.0,87,0.00,,,0.01,Wunderground v.1.15,2013-07-03 00:47:00,
2013-07-02 20:48:00,78.5,74.3,30.08,NNW,330,2.0,3.0,87,0.00,,,0.01,Wunderground v.1.15,2013-07-03 00:48:00,
2013-07-02 20:51:00,78.4,74.2,30.08,NW,309,2.0,2.0,87,0.00,,,0.01,Wunderground v.1.15,2013-07-03 00:51:00,
2013-07-02 20:53:00,78.4,74.2,30.08,NW,324,2.0,2.0,87,0.00,,,0.01,Wunderground v.1.15,2013-07-03 00:53:00,
2013-07-02 20:54:00,78.4,74.2,30.08,NW,314,2.0,3.0,87,0.00,,,0.01,Wunderground v.1.15,2013-07-03 00:54:00,
2013-07-02 20:57:00,78.2,73.7,30.08,NW,321,3.0,4.0,86,0.00,,,0.01,Wunderground v.1.15,2013-07-03 00:57:00,
2013-07-02 20:58:00,78.2,74.0,30.08,NW,315,3.0,4.0,87,0.00,,,0.01,Wunderground v.1.15,2013-07-03 00:58:00,
2013-07-02 20:59:00,78.2,73.7,30.08,NW,307,2.0,4.0,86,0.00,,,0.01,Wunderground v.1.15,2013-07-03 00:59:00,
2013-07-02 21:01:00,78.1,73.9,30.08,WNW,302,2.0,2.0,87,0.00,,,0.01,Wunderground v.1.15,2013-07-03 01:01:00,
2013-07-02 21:03:00,78.1,73.9,30.08,NW,304,2.0,2.0,87,0.00,,,0.01,Wunderground v.1.15,2013-07-03 01:03:00,
2013-07-02 21:04:00,78.1,73.9,30.08,NW,304,2.0,2.0,87,0.00,,,0.01,Wunderground v.1.15,2013-07-03 01:04:00,
2013-07-02 21:06:00,78.1,73.9,30.08,WNW,303,2.0,2.0,87,0.00,,,0.01,Wunderground v.1.15,2013-07-03 01:06:00,
2013-07-02 21:08:00,78.1,73.9,30.08,NNW,338,1.0,2.0,87,0.00,,,0.01,Wunderground v.1.15,2013-07-03 01:08:00,
2013-07-02 21:12:00,78.0,73.8,30.08,NW,316,1.0,3.0,87,0.00,,,0.01,Wunderground v.1.15,2013-07-03 01:12:00,
2013-07-02 21:13:00,78.0,73.8,30.08,NW,312,2.0,3.0,87,0.00,,,0.01,Wunderground v.1.15,2013-07-03 01:13:00,
2013-07-02 21:16:00,77.9,73.7,30.08,NW,310,2.0,3.0,87,0.00,,,0.01,Wunderground v.1.15,2013-07-03 01:16:00,
2013-07-02 21:19:00,77.9,74.1,30.09,NW,305,2.0,3.0,88,0.00,,,0.01,Wunderground v.1.15,2013-07-03 01:19:00,
2013-07-02 21:22:00,77.8,74.0,30.08,NW,311,2.0,2.0,88,0.00,,,0.01,Wunderground v.1.15,2013-07-03 01:22:00,
2013-07-02 21:25:00,77.7,73.9,30.09,NW,304,2.0,2.0,88,0.00,,,0.01,Wunderground v.1.15,2013-07-03 01:25:00,
2013-07-02 21:26:00,77.7,73.5,30.09,WNW,300,2.0,2.0,87,0.00,,,0.01,Wunderground v.1.15,2013-07-03 01:26:00,
2013-07-02 21:28:00,77.7,73.9,30.09,NW,307,1.0,2.0,88,0.00,,,0.01,Wunderground v.1.15,2013-07-03 01:28:00,
2013-07-02 21:29:00,77.7,73.5,30.09,NW,321,1.0,2.0,87,0.00,,,0.01,Wunderground v.1.15,2013-07-03 01:29:00,
2013-07-02 21:31:00,77.7,73.9,30.09,NW,321,1.0,3.0,88,0.00,,,0.01,Wunderground v.1.15,2013-07-03 01:31:00,
2013-07-02 21:33:00,77.7,73.9,30.09,NW,307,2.0,6.0,88,0.00,,,0.01,Wunderground v.1.15,2013-07-03 01:33:00,
2013-07-02 21:34:00,77.7,73.9,30.09,NW,306,2.0,6.0,88,0.00,,,0.01,Wunderground v.1.15,2013-07-03 01:34:00,
2013-07-02 21:37:00,77.7,74.2,30.09,NW,309,2.0,6.0,89,0.00,,,0.01,Wunderground v.1.15,2013-07-03 01:37:00,
2013-07-02 21:38:00,77.7,73.9,30.09,NW,306,2.0,6.0,88,0.00,,,0.01,Wunderground v.1.15,2013-07-03 01:38:00,
2013-07-02 21:40:00,77.7,74.2,30.09,NW,309,3.0,3.0,89,0.00,,,0.01,Wunderground v.1.15,2013-07-03 01:40:00,
2013-07-02 21:42:00,77.6,73.8,30.09,NW,313,2.0,6.0,88,0.00,,,0.01,Wunderground v.1.15,2013-07-03 01:42:00,
2013-07-02 21:43:00,77.6,74.1,30.09,NW,313,2.0,6.0,89,0.00,,,0.01,Wunderground v.1.15,2013-07-03 01:43:00,
2013-07-02 21:46:00,77.5,74.0,30.09,NW,314,2.0,6.0,89,0.00,,,0.01,Wunderground v.1.15,2013-07-03 01:46:00,
2013-07-02 21:48:00,77.5,74.0,30.09,WNW,293,2.0,6.0,89,0.00,,,0.01,Wunderground v.1.15,2013-07-03 01:48:00,
2013-07-02 21:50:00,77.5,74.0,30.09,WNW,298,1.0,6.0,89,0.00,,,0.01,Wunderground v.1.15,2013-07-03 01:50:00,
2013-07-02 21:52:00,77.5,74.0,30.09,WNW,302,1.0,6.0,89,0.00,,,0.01,Wunderground v.1.15,2013-07-03 01:52:00,
2013-07-02 21:53:00,77.5,74.0,30.09,WNW,302,1.0,6.0,89,0.00,,,0.01,Wunderground v.1.15,2013-07-03 01:53:00,
2013-07-02 21:56:00,77.5,74.0,30.09,NW,307,1.0,6.0,89,0.00,,,0.01,Wunderground v.1.15,2013-07-03 01:56:00,
2013-07-02 21:57:00,77.5,74.3,30.09,NW,319,1.0,6.0,90,0.00,,,0.01,Wunderground v.1.15,2013-07-03 01:57:00,
2013-07-02 22:01:00,77.4,74.2,30.09,NW,309,1.0,1.0,90,0.00,,,0.01,Wunderground v.1.15,2013-07-03 02:01:00,
2013-07-02 22:02:00,77.4,74.2,30.09,NW,309,1.0,1.0,90,0.00,,,0.01,Wunderground v.1.15,2013-07-03 02:02:00,
2013-07-02 22:03:00,77.4,74.2,30.09,NW,309,1.0,1.0,90,0.00,,,0.01,Wunderground v.1.15,2013-07-03 02:03:00,
2013-07-02 22:08:00,77.3,74.1,30.09,NW,309,0.0,1.0,90,0.00,,,0.01,Wunderground v.1.15,2013-07-03 02:08:00,
2013-07-02 22:10:00,77.3,74.1,30.09,NW,307,0.0,1.0,90,0.00,,,0.01,Wunderground v.1.15,2013-07-03 02:10:00,
2013-07-02 22:11:00,77.3,74.1,30.09,NW,325,0.0,2.0,90,0.00,,,0.01,Wunderground v.1.15,2013-07-03 02:11:00,
2013-07-02 22:13:00,77.2,73.7,30.09,NNW,333,0.0,2.0,89,0.00,,,0.01,Wunderground v.1.15,2013-07-03 02:13:00,
2013-07-02 22:17:00,77.2,73.7,30.10,NNW,333,1.0,2.0,89,0.00,,,0.01,Wunderground v.1.15,2013-07-03 02:17:00,
2013-07-02 22:18:00,77.2,73.7,30.09,NNW,333,1.0,2.0,89,0.00,,,0.01,Wunderground v.1.15,2013-07-03 02:18:00,
2013-07-02 22:21:00,77.2,73.7,30.10,NNW,333,0.0,1.0,89,0.00,,,0.01,Wunderground v.1.15,2013-07-03 02:21:00,
2013-07-02 22:23:00,77.1,73.6,30.10,NNW,333,0.0,1.0,89,0.00,,,0.01,Wunderground v.1.15,2013-07-03 02:23:00,
2013-07-02 22:25:00,77.1,73.3,30.10,NNW,338,0.0,1.0,88,0.00,,,0.01,Wunderground v.1.15,2013-07-03 02:25:00,
2013-07-02 22:27:00,77.0,73.2,30.09,North,354,0.0,1.0,88,0.00,,,0.01,Wunderground v.1.15,2013-07-03 02:27:00,
2013-07-02 22:29:00,77.0,73.2,30.09,North,354,0.0,1.0,88,0.00,,,0.01,Wunderground v.1.15,2013-07-03 02:29:00,
2013-07-02 22:30:00,77.1,73.6,30.09,North,354,0.0,0.0,89,0.00,,,0.01,Wunderground v.1.15,2013-07-03 02:30:00,
2013-07-02 22:34:00,77.1,73.6,30.10,North,354,0.0,5.0,89,0.00,,,0.01,Wunderground v.1.15,2013-07-03 02:34:00,
2013-07-02 22:35:00,77.1,73.6,30.10,North,354,0.0,5.0,89,0.00,,,0.01,Wunderground v.1.15,2013-07-03 02:35:00,
2013-07-02 22:36:00,77.1,73.6,30.10,North,354,0.0,5.0,89,0.00,,,0.01,Wunderground v.1.15,2013-07-03 02:36:00,
2013-07-02 22:38:00,77.1,73.6,30.10,North,354,0.0,5.0,89,0.00,,,0.01,Wunderground v.1.15,2013-07-03 02:38:00,
2013-07-02 22:40:00,77.1,73.6,30.09,North,2,0.0,5.0,89,0.00,,,0.01,Wunderground v.1.15,2013-07-03 02:40:00,
2013-07-02 22:42:00,77.1,73.6,30.09,North,2,0.0,5.0,89,0.00,,,0.01,Wunderground v.1.15,2013-07-03 02:42:00,
2013-07-02 22:44:00,77.1,73.6,30.09,North,2,0.0,5.0,89,0.00,,,0.01,Wunderground v.1.15,2013-07-03 02:44:00,
2013-07-02 22:46:00,77.1,73.6,30.09,North,2,0.0,5.0,89,0.00,,,0.01,Wunderground v.1.15,2013-07-03 02:46:00,
2013-07-02 22:49:00,77.0,73.5,30.09,North,2,0.0,5.0,89,0.00,,,0.01,Wunderground v.1.15,2013-07-03 02:49:00,
2013-07-02 22:50:00,77.0,73.8,30.09,North,2,0.0,5.0,90,0.00,,,0.01,Wunderground v.1.15,2013-07-03 02:50:00,
2013-07-02 22:54:00,77.0,73.8,30.09,NW,321,0.0,5.0,90,0.00,,,0.01,Wunderground v.1.15,2013-07-03 02:54:00,
2013-07-02 22:55:00,77.0,73.8,30.09,NW,322,0.0,5.0,90,0.00,,,0.01,Wunderground v.1.15,2013-07-03 02:55:00,
2013-07-02 22:56:00,77.0,73.8,30.09,NW,322,0.0,5.0,90,0.00,,,0.01,Wunderground v.1.15,2013-07-03 02:56:00,
2013-07-02 23:00:00,77.0,73.8,30.09,NW,322,0.0,0.0,90,0.00,,,0.01,Wunderground v.1.15,2013-07-03 03:00:00,
2013-07-02 23:02:00,77.0,73.8,30.09,NW,322,0.0,0.0,90,0.00,,,0.01,Wunderground v.1.15,2013-07-03 03:02:00,
2013-07-02 23:03:00,77.0,73.8,30.09,NW,322,0.0,0.0,90,0.00,,,0.01,Wunderground v.1.15,2013-07-03 03:03:00,
2013-07-02 23:04:00,76.9,73.7,30.09,NW,322,0.0,0.0,90,0.00,,,0.01,Wunderground v.1.15,2013-07-03 03:04:00,
2013-07-02 23:08:00,76.9,73.7,30.09,NW,322,0.0,0.0,90,0.00,,,0.01,Wunderground v.1.15,2013-07-03 03:08:00,
2013-07-02 23:09:00,76.8,73.6,30.09,NW,322,0.0,0.0,90,0.00,,,0.01,Wunderground v.1.15,2013-07-03 03:09:00,
2013-07-02 23:11:00,76.8,74.0,30.09,NW,322,0.0,0.0,91,0.00,,,0.01,Wunderground v.1.15,2013-07-03 03:11:00,
2013-07-02 23:12:00,76.9,74.1,30.09,NW,322,0.0,0.0,91,0.00,,,0.01,Wunderground v.1.15,2013-07-03 03:12:00,
2013-07-02 23:15:00,76.9,74.1,30.09,NW,322,0.0,0.0,91,0.00,,,0.01,Wunderground v.1.15,2013-07-03 03:15:00,
2013-07-02 23:16:00,76.9,74.1,30.09,NW,322,0.0,0.0,91,0.00,,,0.01,Wunderground v.1.15,2013-07-03 03:16:00,
2013-07-02 23:20:00,76.8,74.0,30.09,NW,322,0.0,0.0,91,0.00,,,0.01,Wunderground v.1.15,2013-07-03 03:20:00,
2013-07-02 23:22:00,76.8,74.0,30.09,NW,322,0.0,0.0,91,0.00,,,0.01,Wunderground v.1.15,2013-07-03 03:22:00,
2013-07-02 23:23:00,76.8,74.0,30.09,NW,322,0.0,0.0,91,0.00,,,0.01,Wunderground v.1.15,2013-07-03 03:23:00,
2013-07-02 23:26:00,76.8,74.0,30.09,NW,322,0.0,0.0,91,0.00,,,0.01,Wunderground v.1.15,2013-07-03 03:26:00,
2013-07-02 23:28:00,76.8,74.0,30.09,NW,322,0.0,0.0,91,0.00,,,0.01,Wunderground v.1.15,2013-07-03 03:28:00,
2013-07-02 23:32:00,76.8,74.0,30.09,NW,322,0.0,2.0,91,0.00,,,0.01,Wunderground v.1.15,2013-07-03 03:32:00,
2013-07-02 23:33:00,76.8,74.0,30.10,NW,322,0.0,2.0,91,0.00,,,0.01,Wunderground v.1.15,2013-07-03 03:33:00,
2013-07-02 23:34:00,76.9,74.1,30.09,NW,322,0.0,2.0,91,0.00,,,0.01,Wunderground v.1.15,2013-07-03 03:34:00,
2013-07-02 23:37:00,77.0,74.2,30.10,East,80,0.0,2.0,91,0.00,,,0.01,Wunderground v.1.15,2013-07-03 03:37:00,
2013-07-02 23:38:00,77.0,74.2,30.09,East,80,0.0,2.0,91,0.00,,,0.01,Wunderground v.1.15,2013-07-03 03:38:00,
2013-07-02 23:40:00,77.0,74.2,30.09,East,80,0.0,2.0,91,0.00,,,0.01,Wunderground v.1.15,2013-07-03 03:40:00,
2013-07-02 23:43:00,77.1,74.3,30.09,East,80,0.0,2.0,91,0.00,,,0.01,Wunderground v.1.15,2013-07-03 03:43:00,
2013-07-02 23:44:00,77.1,74.3,30.09,East,80,0.0,2.0,91,0.00,,,0.01,Wunderground v.1.15,2013-07-03 03:44:00,
2013-07-02 23:46:00,77.2,74.4,30.09,East,82,0.0,2.0,91,0.00,,,0.01,Wunderground v.1.15,2013-07-03 03:46:00,
2013-07-02 23:47:00,77.2,74.4,30.09,East,82,0.0,2.0,91,0.00,,,0.01,Wunderground v.1.15,2013-07-03 03:47:00,
2013-07-02 23:52:00,77.2,74.4,30.09,East,96,0.0,2.0,91,0.00,,,0.01,Wunderground v.1.15,2013-07-03 03:52:00,
2013-07-02 23:53:00,77.2,74.4,30.09,East,96,0.0,2.0,91,0.00,,,0.01,Wunderground v.1.15,2013-07-03 03:53:00,
2013-07-02 23:54:00,77.2,74.4,30.09,East,96,0.0,2.0,91,0.00,,,0.01,Wunderground v.1.15,2013-07-03 03:54:00,
2013-07-02 23:56:00,77.2,74.4,30.09,East,96,0.0,2.0,91,0.00,,,0.01,Wunderground v.1.15,2013-07-03 03:56:00,
2013-07-02 23:58:00,77.2,74.4,30.09,East,100,0.0,2.0,91,0.00,,,0.01,Wunderground v.1.15,2013-07-03 03:58:00,
2013-07-02 23:59:00,77.3,74.5,30.09,East,100,0.0,2.0,91,0.00,,,0.01,Wunderground v.1.15,2013-07-03 03:59:00,